GFSWCAN_sfc_thetae_000.txt.gz
Theta_e
298 298 297 298 298 297 298 298 298 297 297 299 300 299 299 299 299 296 290 293 288 283 282 283 283 279 280 276 269 270 271 270 271 268 262 271 267 272 269 272 269 268 268 265 268 262 266 278 276 270 275 280 281 280
298 297 297 298 297 297 297 297 297 298 297 298 299 299 299 299 298 297 287 291 294 285 281 286 286 287 287 284 279 271 273 267 274 267 263 264 261 263 263 258 272 265 271 265 271 271 278 279 278 280 282 276 277 278
297 297 297 297 297 297 297 296 297 297 297 298 298 298 298 298 298 297 288 288 290 285 284 282 281 286 289 288 289 279 273 281 279 279 270 272 265 269 258 261 267 272 275 270 269 274 275 277 278 280 280 278 278 277
297 297 297 296 296 296 296 296 296 296 296 296 297 297 297 298 298 297 287 290 289 285 277 276 282 282 287 288 287 287 285 283 282 280 277 273 266 275 267 272 270 272 274 271 271 275 276 277 277 277 277 277 275 275
296 296 296 296 296 296 295 295 295 295 296 296 296 296 297 297 297 295 290 289 292 285 277 273 275 282 285 285 284 285 284 282 282 279 276 273 271 272 269 274 271 275 273 271 269 276 275 276 278 277 275 274 273 272
296 296 295 295 295 295 295 295 294 294 295 295 296 296 296 296 296 289 284 289 291 290 281 268 278 275 282 283 283 282 282 282 282 279 278 277 279 276 271 265 275 277 278 278 275 278 276 277 276 276 272 271 272 271
295 295 295 295 295 295 295 295 294 294 294 295 295 296 296 296 291 285 282 284 292 290 281 275 270 274 280 279 275 279 281 281 281 280 278 277 277 278 274 269 276 277 278 278 275 272 272 274 272 271 271 270 269 268
295 294 294 294 294 294 294 294 294 294 294 294 294 295 295 295 294 288 291 293 292 286 283 273 273 272 276 271 271 280 278 279 279 278 275 276 277 277 271 275 277 278 277 272 271 269 269 269 268 268 267 266 264 264
294 294 293 294 294 293 293 294 293 293 293 293 294 294 290 288 284 283 293 294 291 284 275 269 265 269 279 275 276 272 278 272 279 275 275 275 273 269 272 275 274 266 265 263 265 265 265 262 263 263 263 262 261 262
292 292 292 293 293 293 293 293 293 293 292 293 289 284 280 282 291 291 284 280 280 281 280 272 264 265 275 272 270 268 273 271 269 270 277 272 269 275 264 264 264 264 262 261 259 259 258 258 259 260 259 261 261 260
291 291 292 292 292 292 292 292 292 292 291 285 282 280 284 291 282 279 275 274 273 270 278 273 275 273 277 270 268 276 272 272 267 264 264 253 256 267 261 260 262 262 261 259 258 258 258 258 258 258 258 258 258 257
290 290 290 291 291 291 291 292 292 288 284 284 284 286 286 281 276 272 270 271 271 269 263 265 268 273 271 274 268 273 269 270 264 256 259 256 264 257 256 256 258 258 256 255 256 256 257 258 258 256 256 256 256 257
289 289 289 289 290 291 291 291 291 291 289 286 282 277 277 274 269 267 261 259 257 259 260 262 267 272 271 274 270 270 265 263 258 257 259 261 257 256 254 254 255 255 255 255 255 256 256 255 255 254 254 256 256 256
288 288 288 289 289 290 290 290 290 289 285 278 275 269 270 265 265 264 262 260 262 264 259 262 265 268 264 268 271 265 266 263 258 257 258 249 252 250 252 254 253 253 252 253 252 253 253 253 253 254 255 256 257 257
287 287 287 288 288 289 289 290 290 287 282 276 275 268 267 259 256 255 255 260 260 261 264 264 268 273 265 270 271 267 264 258 259 258 250 250 253 253 253 253 252 251 251 251 251 251 252 252 253 254 256 258 257 257
287 286 283 288 288 289 289 288 286 284 280 276 271 266 259 260 258 257 258 261 262 265 267 269 267 267 265 267 266 262 257 256 257 244 246 249 247 248 248 249 250 250 250 250 251 251 252 253 253 254 257 257 256 256
286 276 286 287 288 289 289 283 281 277 274 267 256 253 254 257 257 253 256 258 262 260 261 264 263 263 266 265 261 256 256 247 243 243 245 246 247 248 248 248 249 249 249 250 251 252 252 254 256 256 255 255 256 257
273 278 287 287 286 286 281 278 275 268 260 259 255 250 253 252 252 252 254 258 259 259 255 258 260 255 255 254 254 246 243 241 243 244 248 249 246 246 247 247 249 249 250 251 250 252 254 256 256 255 255 256 256 256
279 284 287 287 284 278 274 270 267 258 255 254 255 255 253 252 255 255 253 257 258 257 256 254 252 251 251 245 243 240 239 240 243 248 249 248 248 247 247 248 249 247 248 252 253 255 256 256 256 256 256 256 255 256
283 284 284 283 281 273 267 265 264 258 252 255 254 250 251 252 250 245 246 254 257 251 252 251 247 242 245 246 247 247 249 249 244 242 245 248 249 245 248 251 252 253 253 254 256 256 256 256 257 257 256 256 255 255
277 277 278 274 267 265 263 262 259 258 257 253 252 252 251 248 243 243 244 253 250 252 248 241 240 243 244 244 244 242 247 247 245 245 244 245 251 253 254 254 253 253 253 253 253 254 254 254 255 257 257 256 257 257
272 275 268 270 265 261 260 260 258 257 253 250 251 247 243 243 242 242 248 246 247 244 243 243 242 241 241 242 243 242 243 241 242 246 251 252 251 252 253 253 252 251 252 252 253 253 253 254 255 256 256 256 257 257
269 268 263 261 258 255 254 256 252 253 249 249 245 246 245 242 244 251 248 242 242 244 240 240 240 239 241 242 244 245 245 246 247 249 250 251 253 254 253 253 252 250 250 251 253 253 253 254 254 254 255 255 255 254
263 256 253 252 251 247 249 248 251 249 248 246 245 244 244 242 249 246 245 238 242 241 242 242 242 245 246 246 246 247 248 250 251 251 251 251 252 252 253 253 252 251 251 251 251 252 252 252 252 252 251 251 252 252
255 246 248 244 247 246 244 243 244 246 244 243 244 244 245 246 246 243 244 242 240 240 243 244 246 247 245 248 251 251 251 252 252 252 252 252 252 253 253 253 253 251 251 249 249 249 250 251 250 250 249 248 247 247
243 242 242 240 243 244 242 242 241 243 243 244 244 244 242 245 244 244 243 241 239 245 247 249 249 248 249 251 251 252 252 253 252 251 253 252 252 251 250 250 249 250 249 247 246 246 247 249 248 247 247 247 246 243
241 240 242 242 243 244 242 243 244 245 243 244 243 244 246 243 242 245 242 245 248 249 250 251 251 251 252 251 252 253 253 253 252 252 253 252 252 250 249 247 248 249 248 247 245 243 244 246 248 247 245 243 240 239
241 240 242 241 241 239 239 240 241 242 243 245 244 244 245 248 246 245 248 252 249 250 251 250 252 253 252 253 253 253 252 250 250 249 248 249 249 250 249 249 249 255 251 248 248 248 247 247 247 246 242 243 243 240
240 237 240 239 238 239 239 240 239 238 240 238 241 243 245 246 246 245 249 250 248 251 250 250 251 252 252 252 251 250 249 247 248 248 247 248 248 250 249 249 247 246 246 243 249 254 253 253 251 248 245 243 242 238
240 236 241 239 240 241 240 238 237 234 235 238 237 242 243 245 247 249 248 249 250 250 252 251 250 251 249 246 246 247 244 246 248 249 246 246 248 246 243 243 245 246 243 239 245 246 249 246 245 242 243 242 242 241
234 234 238 237 240 237 234 231 230 232 233 233 231 237 239 239 242 244 248 248 245 241 243 243 241 238 242 242 241 240 246 244 244 246 246 246 245 244 245 246 246 243 241 241 242 241 243 242 241 242 243 243 244 244
234 235 238 242 240 235 232 232 231 234 233 234 237 232 238 239 241 244 243 243 241 242 246 243 243 249 246 248 243 245 248 246 242 246 245 247 247 248 248 248 246 242 242 244 244 244 244 244 245 246 246 245 245 244
231 230 230 234 238 238 234 235 235 236 234 234 235 232 232 236 243 245 244 242 245 248 247 247 248 245 245 246 246 247 248 248 248 253 254 254 252 252 250 249 246 246 246 246 247 247 247 246 247 247 246 246 246 246

GFSWCAN_sfc_thetae_003.txt.gz
Theta_e
299 299 299 299 299 298 299 299 298 298 298 298 299 299 300 300 300 296 290 291 289 282 282 283 283 279 279 276 268 270 272 270 270 268 260 270 264 270 267 271 269 266 258 257 255 254 260 276 274 270 272 275 277 277
299 299 299 299 299 298 299 299 298 298 298 298 298 298 299 300 300 299 289 293 294 286 284 285 286 287 285 283 278 274 274 266 274 267 263 263 260 262 263 258 272 264 269 263 266 265 277 278 276 278 278 277 277 277
298 298 298 298 298 298 298 298 297 297 297 297 298 298 298 299 299 298 291 289 290 285 284 284 282 286 288 287 288 279 275 281 278 279 273 273 267 270 263 262 268 271 275 270 268 275 275 277 278 278 278 278 279 278
297 297 297 298 298 298 297 297 297 297 296 296 296 297 297 298 298 298 291 291 289 286 278 276 282 282 287 288 287 286 284 282 282 282 278 274 268 275 270 272 270 272 273 270 271 275 276 277 278 278 278 277 277 275
297 297 297 297 297 297 297 297 296 296 296 295 296 296 296 296 297 296 294 291 292 284 274 276 275 281 283 283 283 284 283 282 281 278 277 274 273 275 273 274 271 275 273 271 269 276 275 276 278 277 275 275 273 271
296 296 296 296 296 296 296 296 296 296 296 295 295 295 296 296 296 291 284 290 291 290 282 275 279 274 280 282 281 281 282 282 282 279 278 279 279 277 271 268 275 277 278 278 275 278 278 278 275 274 271 271 271 270
295 295 296 296 296 296 296 296 296 295 295 295 295 295 295 296 293 286 282 284 293 291 281 275 271 273 279 277 274 279 280 280 281 279 277 278 277 278 274 270 276 277 278 277 275 272 273 274 271 269 270 269 268 267
294 294 294 295 295 295 295 295 295 295 295 295 294 294 295 295 294 288 291 293 293 286 282 274 266 267 275 270 270 278 277 279 280 278 276 276 278 277 272 276 277 277 273 269 267 268 268 268 268 267 266 265 263 263
293 293 293 294 295 295 294 295 295 294 294 294 294 293 290 288 284 284 294 294 291 284 276 274 265 263 277 275 277 273 279 273 279 275 275 275 273 270 272 275 271 264 264 262 264 264 263 262 262 263 262 261 260 261
292 292 293 294 294 294 294 294 294 294 294 293 289 284 280 284 292 292 287 283 282 281 280 273 264 263 275 273 265 266 274 272 268 271 276 272 271 271 264 263 263 263 261 260 259 259 257 257 259 259 259 260 260 259
291 291 292 292 292 292 293 293 293 293 293 286 282 280 284 290 285 281 276 275 276 273 276 268 271 269 273 264 266 275 272 273 268 264 266 263 260 267 261 260 262 261 260 259 258 258 258 257 257 257 258 258 257 257
290 290 291 291 291 291 292 293 293 290 286 285 285 286 286 282 278 273 272 274 272 266 262 270 272 273 267 274 271 274 270 271 266 261 258 253 264 257 256 257 258 258 255 255 255 255 256 257 257 256 255 255 255 256
289 289 290 290 290 291 291 292 293 292 290 285 282 278 278 275 269 267 264 265 264 258 258 262 264 268 274 276 273 273 269 266 259 256 258 261 257 255 253 254 254 255 254 254 254 255 255 254 254 254 253 254 255 255
288 288 289 289 290 290 290 291 292 291 285 278 274 270 271 268 270 264 260 262 263 262 260 260 258 269 271 271 273 267 269 263 260 259 257 251 251 249 251 252 249 252 252 251 251 252 252 252 252 253 253 254 255 255
287 287 288 288 288 289 289 290 290 287 281 275 275 267 268 260 254 252 251 256 258 261 264 262 263 274 270 270 272 269 265 264 261 258 252 250 252 249 250 249 248 249 250 250 250 250 251 251 251 251 253 254 256 257
287 286 284 287 288 288 289 288 285 282 280 276 272 267 261 258 254 254 253 258 262 266 263 266 269 268 267 268 266 264 261 257 258 248 250 250 247 246 245 246 247 248 248 249 249 249 250 251 251 252 254 255 256 256
287 275 286 287 287 288 288 278 280 277 274 266 262 257 259 261 259 255 259 260 262 261 258 265 265 264 267 265 262 260 259 252 247 245 244 244 244 244 244 245 246 246 247 247 248 249 250 250 251 253 254 256 256 256
272 280 287 287 285 282 279 278 271 267 260 260 261 254 255 254 254 255 253 259 260 259 257 262 262 259 259 256 255 250 245 242 241 242 245 245 243 243 243 244 246 246 246 247 247 246 248 251 253 255 255 256 256 256
282 281 285 286 283 278 274 267 268 259 256 254 256 256 255 254 256 255 253 258 257 256 257 253 254 252 254 246 244 240 238 240 243 247 247 245 246 243 245 246 246 245 246 246 250 254 255 255 256 256 256 256 255 256
282 283 284 287 281 273 266 263 265 260 257 257 256 254 254 254 252 249 247 253 256 251 256 253 251 244 249 247 245 244 246 247 243 241 243 247 248 243 247 246 249 250 252 254 254 255 254 254 255 256 256 256 255 255
277 278 278 272 268 266 263 262 259 258 257 255 256 254 252 250 245 243 244 252 251 252 249 241 239 239 239 239 241 242 247 248 244 243 243 243 247 247 248 252 253 253 252 252 252 253 253 253 254 255 256 256 256 257
272 275 270 271 266 264 261 260 259 258 256 253 253 250 246 245 242 243 247 247 247 244 242 241 240 239 240 242 242 239 241 240 240 244 248 248 248 252 252 252 251 251 252 251 251 251 252 253 254 254 255 255 256 256
268 268 263 261 261 259 256 259 255 252 252 250 247 248 245 242 243 251 248 242 241 243 238 239 239 236 240 239 239 241 242 244 245 246 249 251 252 253 253 253 252 250 250 251 251 252 252 253 253 253 253 254 253 253
262 255 252 251 253 251 250 250 252 250 249 247 246 244 243 241 248 245 245 238 241 240 240 240 239 243 243 243 244 245 245 245 249 249 251 251 252 252 253 253 252 251 251 251 251 251 252 251 252 251 250 249 249 249
255 247 248 244 246 246 244 242 243 246 244 241 242 243 244 241 243 242 244 242 239 239 240 238 240 243 243 242 245 247 250 251 251 251 252 252 252 253 253 253 253 251 251 250 249 248 249 250 249 249 249 248 247 247
243 241 243 238 242 244 241 242 241 242 241 241 241 241 238 241 243 244 243 241 238 241 242 247 246 244 245 248 250 251 251 251 251 250 252 252 252 250 249 249 249 250 250 248 247 245 246 247 248 248 248 247 246 241
241 240 241 241 242 242 242 241 241 242 241 242 240 241 241 243 242 245 242 242 243 245 248 249 249 249 249 250 252 251 252 252 252 252 251 251 252 251 251 249 249 250 248 247 246 245 245 246 247 247 246 243 240 239
240 239 242 241 239 238 238 237 239 240 240 241 241 242 243 245 246 244 245 249 247 248 248 249 251 251 251 252 252 252 252 249 249 249 249 250 250 250 250 250 250 256 252 249 248 247 245 246 246 247 246 245 245 241
239 237 239 240 238 240 239 240 240 239 240 238 241 241 243 244 243 242 247 249 246 248 249 250 250 250 250 251 251 250 249 248 249 248 247 247 247 250 249 249 248 247 245 244 249 253 251 250 251 250 246 245 244 239
239 237 244 242 243 242 240 236 236 233 233 236 236 241 241 242 243 245 247 247 250 250 249 250 249 250 248 246 245 245 242 245 247 248 245 246 247 246 242 243 243 243 242 240 245 246 249 247 246 243 243 243 243 242
234 234 238 237 239 236 233 230 229 231 232 232 230 236 238 239 242 245 248 249 249 244 244 243 242 238 242 241 241 241 246 244 243 245 245 245 244 244 245 246 246 244 241 242 242 242 243 243 241 243 244 244 244 245
233 233 238 241 239 234 231 231 230 233 232 234 236 230 236 238 242 245 244 242 240 241 245 242 242 248 245 247 242 244 248 245 243 245 245 247 247 248 248 248 246 243 243 244 244 244 244 244 245 246 246 245 245 245
231 229 229 234 237 238 234 234 235 236 234 234 235 231 231 236 242 245 243 240 243 245 246 246 247 244 244 246 247 247 249 249 249 254 255 254 253 253 251 250 248 246 245 246 246 246 246 246 246 246 246 246 246 246

GFSWCAN_sfc_thetae_006.txt.gz
Theta_e
299 299 299 300 300 299 300 300 300 299 300 298 298 299 300 300 300 298 292 292 289 284 283 282 283 279 278 275 269 270 271 270 270 262 259 269 262 270 267 270 269 267 259 256 253 254 257 275 273 268 271 274 274 275
299 300 299 299 299 300 300 299 298 299 299 299 299 299 299 300 299 299 291 292 293 286 284 284 286 287 285 282 277 271 274 267 274 268 264 264 260 261 263 259 271 264 269 262 264 264 275 277 275 279 277 274 276 277
298 298 299 299 299 299 299 299 299 298 299 299 298 298 298 299 299 297 293 292 290 285 284 284 282 286 287 286 287 278 273 280 277 279 273 273 268 270 262 262 267 271 274 271 271 274 275 276 278 277 278 278 278 278
298 298 298 298 298 298 299 299 298 298 298 298 297 297 297 297 298 297 291 292 290 285 278 278 282 282 287 287 286 286 284 281 281 280 277 274 270 277 272 273 271 273 272 269 271 275 276 277 278 279 279 278 276 276
297 297 297 297 297 298 298 298 298 298 298 298 297 297 296 296 297 296 293 293 292 285 277 274 274 281 283 284 284 284 283 282 281 278 276 273 276 276 275 275 272 275 273 270 269 276 275 276 279 277 276 275 273 272
296 296 296 297 297 297 297 297 297 297 297 297 297 296 296 296 296 290 284 291 293 291 282 275 279 275 280 281 281 281 282 281 281 279 277 278 280 277 272 270 276 277 278 278 275 278 278 278 275 272 271 270 271 270
295 295 295 296 296 296 296 297 297 297 296 297 296 296 296 295 291 286 283 284 294 292 281 276 274 272 279 278 275 278 280 280 280 279 277 277 277 279 274 270 276 277 277 278 274 273 275 274 271 269 270 268 267 267
294 294 294 295 295 295 295 296 296 296 296 296 296 296 295 295 293 288 291 294 293 286 283 274 270 266 274 270 271 278 277 279 279 277 275 276 277 277 271 276 278 278 273 270 267 268 268 267 267 266 266 265 263 263
293 293 294 294 294 294 295 295 295 296 296 295 295 295 291 288 284 286 294 295 292 285 276 274 264 262 276 274 276 272 278 272 278 274 275 275 271 269 273 276 276 266 266 263 264 264 264 262 263 263 261 261 260 260
291 292 293 293 293 293 293 294 295 295 295 295 291 284 280 284 292 292 287 283 282 282 280 274 261 262 275 273 269 270 275 272 269 270 276 273 271 276 269 264 264 262 261 261 259 260 257 257 258 259 258 259 260 259
290 291 291 292 293 292 293 294 294 294 294 287 282 280 283 291 282 281 277 276 277 273 277 271 270 267 275 270 271 274 270 268 263 264 266 262 259 270 262 261 262 262 260 258 258 258 258 257 257 257 257 257 257 256
289 290 290 291 291 292 292 293 293 290 286 286 285 286 286 281 277 274 272 273 272 268 264 268 272 276 274 275 270 272 268 268 263 261 266 263 266 259 258 258 258 257 255 254 255 255 256 257 257 256 255 255 255 255
288 289 289 290 290 291 292 292 292 292 290 286 281 278 278 276 271 269 265 263 261 258 261 265 268 272 273 275 272 271 267 264 258 262 262 261 257 255 253 254 254 254 253 253 253 254 254 254 254 253 253 254 253 253
288 289 289 289 289 290 291 291 292 290 285 279 275 270 270 268 267 264 261 260 265 264 261 264 266 270 268 270 271 265 265 265 262 261 257 255 252 250 251 254 249 250 248 251 250 251 251 252 252 252 252 252 252 251
288 288 288 288 289 289 290 290 290 288 282 276 274 268 269 258 254 250 250 259 262 265 268 265 263 273 264 268 271 266 263 262 262 259 257 250 252 252 252 249 246 246 248 248 248 248 249 250 250 250 250 250 250 253
288 286 282 287 288 289 289 289 286 285 280 276 271 266 255 258 252 252 249 253 259 267 263 266 262 267 265 268 267 265 262 258 260 250 249 252 251 249 245 245 246 246 245 245 246 246 249 248 248 249 250 250 252 254
287 281 287 287 287 288 288 279 279 274 271 267 261 257 256 260 259 253 253 257 263 261 258 264 265 263 267 263 260 259 258 254 248 250 250 248 246 245 244 242 243 243 244 244 242 244 245 246 247 245 247 251 254 256
270 277 286 287 285 283 276 273 270 267 261 258 259 250 250 250 250 254 254 261 264 264 264 264 265 261 259 257 255 254 248 243 242 243 245 244 242 240 240 242 244 243 244 244 244 244 241 245 246 251 254 256 256 256
282 282 286 286 284 276 270 265 267 260 252 252 253 255 253 251 256 256 257 260 260 260 262 262 263 258 256 248 246 241 239 242 244 247 246 244 245 242 242 242 243 243 243 243 244 247 251 253 254 255 256 256 255 256
282 282 285 284 280 271 265 262 265 260 251 254 254 251 254 255 254 252 255 258 260 259 260 258 255 247 248 245 245 244 245 247 243 241 243 247 247 242 244 243 245 244 245 247 251 254 254 254 254 255 255 256 255 255
276 276 278 273 268 266 263 262 258 259 257 255 256 256 254 254 251 252 252 254 258 257 251 242 240 239 238 237 239 240 246 247 243 243 244 244 246 245 245 245 245 247 251 252 251 252 253 252 253 254 254 255 256 256
270 275 270 271 266 262 260 260 257 257 255 253 255 254 253 253 248 246 249 251 248 244 242 242 240 238 239 241 241 238 240 239 238 243 246 246 247 248 247 248 250 250 252 251 251 251 252 253 253 253 253 254 255 255
268 268 263 262 262 260 255 260 256 254 254 253 252 253 250 249 247 252 249 242 242 242 237 237 237 235 239 237 237 238 238 240 242 244 246 249 251 251 251 251 251 251 251 252 252 252 252 253 252 252 252 252 252 252
262 254 253 253 256 254 253 253 255 253 252 251 249 246 244 241 247 246 245 239 241 239 239 239 238 241 241 241 241 243 244 243 244 245 247 249 251 251 252 252 252 252 251 251 252 251 251 251 252 251 250 249 248 248
256 247 248 245 248 250 248 245 245 248 245 241 243 243 244 240 244 243 244 242 238 238 239 236 237 241 241 238 241 242 243 247 249 248 250 251 251 252 252 252 252 252 251 250 250 249 249 249 249 249 249 246 246 246
243 241 243 237 243 245 242 243 241 242 240 242 241 239 237 240 243 245 244 241 238 240 241 244 245 242 243 244 246 249 249 251 251 250 252 253 252 251 249 250 249 250 250 248 247 246 247 248 247 247 248 248 248 244
242 240 241 240 241 240 241 240 239 241 241 243 239 241 242 244 243 246 242 242 242 242 244 248 249 248 247 245 249 250 251 253 252 252 250 250 251 251 251 250 250 251 250 249 248 247 246 247 247 248 247 247 242 241
239 237 241 240 239 236 238 237 239 241 240 239 240 243 245 246 246 245 247 246 243 244 245 246 247 247 248 251 251 253 253 250 249 250 250 250 250 251 251 252 252 256 252 250 250 249 247 246 246 246 246 247 247 242
239 236 238 240 240 243 240 241 239 238 239 237 242 243 243 243 243 241 244 247 244 247 247 248 249 249 251 252 252 252 250 250 250 249 248 249 249 252 250 250 250 249 248 247 251 254 251 248 248 248 249 247 246 240
239 236 242 240 242 242 239 236 236 233 232 235 235 240 241 241 241 240 242 243 246 246 246 246 247 250 250 250 249 249 246 247 250 250 247 247 248 246 243 243 245 245 242 240 245 246 249 246 245 242 243 243 243 242
233 233 237 237 240 236 233 229 228 229 230 231 229 235 238 237 240 239 242 244 245 246 247 246 244 241 243 241 242 243 246 244 244 245 245 245 244 244 245 246 246 244 241 242 243 242 243 243 241 242 243 244 245 245
233 233 237 241 239 234 230 230 229 233 231 233 236 230 237 239 244 245 246 242 241 243 245 242 241 247 244 246 242 242 247 243 241 245 245 247 248 249 249 249 246 243 243 245 244 244 243 243 244 245 246 246 246 245
232 229 229 234 237 238 234 234 235 236 234 234 235 231 231 236 243 245 243 239 242 242 242 244 244 241 242 243 245 246 248 247 247 253 255 254 253 253 250 248 247 246 245 246 246 246 245 245 246 246 246 246 247 247

GFSWCAN_sfc_thetae_009.txt.gz
Theta_e
300 300 300 300 300 300 301 300 299 301 301 300 300 299 300 300 301 298 292 293 289 283 282 282 283 278 278 275 269 270 271 270 269 263 261 268 262 269 266 269 268 267 259 254 254 256 260 273 273 268 271 274 274 275
300 299 300 300 300 300 300 300 299 300 300 300 300 300 299 299 300 299 291 294 294 286 282 284 286 287 285 282 278 270 274 267 274 268 263 265 260 263 264 260 271 265 269 263 265 264 274 276 275 278 278 276 277 276
298 299 299 299 299 300 300 300 300 300 300 299 299 300 300 299 299 298 290 290 290 285 284 284 282 285 286 286 286 277 272 279 277 279 273 273 268 270 260 262 266 270 273 270 271 274 274 277 279 278 278 277 278 277
296 297 298 299 299 299 299 299 299 299 299 299 299 299 299 298 298 298 290 293 291 286 279 279 281 282 287 287 285 285 283 281 281 280 277 274 268 276 270 272 271 273 272 269 271 274 276 276 278 278 279 278 276 275
296 296 297 297 298 298 298 298 298 298 299 299 299 299 298 298 298 294 292 292 293 286 279 279 277 281 283 285 284 284 282 281 280 278 276 274 274 275 271 274 271 276 273 271 269 276 275 276 279 277 277 276 272 271
295 296 296 296 296 297 297 298 298 298 298 298 298 298 298 297 297 290 284 289 293 292 282 276 279 274 279 282 282 282 283 282 282 279 277 277 279 277 272 269 275 277 278 278 276 279 278 279 273 272 272 270 270 269
295 295 295 295 296 296 296 297 297 297 297 297 298 298 298 297 292 285 281 286 293 292 282 277 274 275 278 278 275 278 281 282 281 279 277 277 276 279 274 270 276 277 278 278 279 274 275 274 271 269 269 268 267 266
293 294 294 295 295 295 295 296 296 296 296 297 297 297 297 297 295 288 290 293 293 287 283 275 272 266 274 271 272 279 277 279 279 278 275 275 276 277 271 275 277 278 278 274 269 269 268 267 268 266 265 264 262 263
292 293 293 293 294 294 294 295 295 295 296 296 297 296 293 290 284 284 294 295 292 285 277 275 269 263 275 273 275 272 278 272 278 274 275 274 267 268 272 275 276 276 270 268 265 265 264 264 263 262 261 260 259 260
291 291 292 292 292 293 293 294 294 294 295 296 292 285 281 285 292 292 284 282 283 282 280 274 261 263 275 272 268 270 273 270 267 271 275 271 270 275 275 265 265 264 263 263 262 260 258 257 259 259 259 259 259 259
289 290 290 291 291 292 292 293 293 293 294 288 283 281 284 292 283 280 276 275 276 274 278 272 268 264 273 270 270 275 272 273 268 265 267 256 258 271 264 262 263 262 261 259 259 259 258 257 257 257 257 258 257 256
288 289 289 290 290 291 292 292 292 290 287 287 285 287 286 282 278 274 273 272 268 265 263 265 267 273 273 276 273 273 270 271 266 257 260 256 265 262 260 259 258 257 256 256 256 255 256 257 257 255 255 254 254 255
289 289 289 289 290 290 291 292 292 292 291 285 282 278 278 276 270 269 265 262 259 257 261 264 267 272 275 276 273 272 268 267 259 262 259 262 260 255 254 255 254 254 255 254 254 254 253 253 253 252 252 253 253 252
289 288 289 289 289 290 290 290 291 291 285 278 275 271 271 269 271 262 263 264 265 264 263 265 263 269 271 272 273 267 267 265 261 256 257 261 253 252 253 253 251 251 250 251 249 250 251 251 251 251 251 251 250 249
288 288 288 288 289 289 289 290 290 288 282 276 275 269 270 261 253 249 248 259 258 263 268 266 266 274 269 270 272 268 262 260 258 259 259 251 252 251 251 250 248 249 247 246 246 246 248 249 248 248 248 247 247 248
288 287 282 287 288 288 289 288 286 285 281 277 271 267 260 261 255 254 250 258 259 266 264 268 265 269 267 268 267 263 259 257 263 252 247 252 250 250 247 248 247 244 243 244 244 244 247 246 247 247 246 247 247 247
287 274 286 287 287 287 288 282 281 271 271 268 263 259 262 263 265 260 259 260 264 263 261 264 264 263 267 265 260 258 259 259 248 245 250 250 250 250 249 242 242 242 243 241 241 241 242 244 241 241 244 248 247 250
277 277 286 287 284 281 274 271 271 267 261 259 263 257 256 255 256 257 255 262 265 263 262 262 267 261 260 258 255 255 247 244 246 249 250 247 243 240 240 241 242 241 242 241 240 241 240 242 244 247 247 250 254 255
282 283 286 286 282 272 269 264 265 260 253 253 255 256 255 254 256 256 255 261 261 260 262 262 264 261 258 251 249 243 240 245 246 248 248 244 245 241 241 241 241 241 241 241 242 244 245 245 249 253 254 256 255 256
281 282 281 281 279 270 264 262 265 259 256 255 252 251 253 252 253 252 254 259 261 262 260 261 259 249 250 247 246 245 246 247 245 242 244 247 246 241 243 242 244 242 242 243 244 250 249 252 254 254 254 255 255 255
275 274 278 271 268 265 262 260 256 258 256 253 252 253 252 252 247 248 251 256 260 261 256 247 247 247 241 238 239 240 246 247 244 244 245 244 245 244 243 243 242 242 244 244 247 251 253 252 253 254 254 254 255 255
270 275 268 272 265 259 258 257 257 258 252 250 252 253 249 248 247 249 251 254 256 250 249 247 242 240 240 241 240 237 238 238 238 242 245 246 247 249 249 249 249 247 249 250 251 251 252 253 253 253 253 253 254 254
268 268 264 263 261 256 253 256 251 251 254 251 251 252 251 250 249 254 255 248 244 242 238 237 236 234 238 235 235 236 236 240 241 242 244 247 249 251 251 251 251 250 251 252 252 252 252 253 253 252 252 252 251 251
262 254 253 253 256 253 252 252 254 252 253 252 252 250 250 249 248 250 248 240 241 238 237 237 237 240 240 240 240 239 239 239 240 241 241 245 248 251 252 252 251 252 252 252 252 252 252 251 252 252 251 250 249 248
256 247 248 245 248 248 250 250 250 254 252 248 250 249 246 239 244 243 245 242 238 238 238 234 236 240 241 237 238 239 238 243 246 246 247 249 249 251 252 252 252 252 252 251 251 250 250 250 250 249 250 248 248 248
243 241 243 238 243 248 245 249 246 244 241 241 240 239 237 242 245 247 243 241 237 239 239 242 243 240 241 241 245 246 248 249 250 250 251 252 252 252 249 249 250 251 252 251 249 248 249 249 248 248 249 249 249 247
242 240 240 240 242 241 244 243 241 241 241 243 240 240 241 245 244 246 242 242 242 241 242 244 245 246 248 246 246 248 249 252 252 253 251 251 252 252 251 250 250 252 251 250 249 248 247 247 248 248 249 249 247 247
239 237 241 239 239 235 238 238 239 240 240 239 239 244 245 246 245 246 247 247 242 240 243 246 248 248 247 249 251 253 252 252 251 251 251 251 251 251 251 252 252 257 250 250 250 250 248 248 247 247 247 247 248 246
241 237 237 240 239 241 238 239 239 237 239 237 242 244 245 246 244 244 247 247 244 247 248 248 248 248 250 252 252 252 251 251 250 250 248 249 249 251 249 249 249 249 248 247 252 255 251 249 249 249 248 248 248 241
239 236 244 243 244 243 240 237 236 232 232 234 235 241 243 244 245 242 240 242 245 246 246 248 250 251 251 251 251 250 246 247 248 248 246 245 247 245 242 242 244 244 243 241 246 247 250 248 246 243 243 244 244 244
232 232 237 236 239 236 233 229 228 229 230 230 228 234 237 237 240 239 241 241 243 244 247 248 248 249 250 250 245 244 247 244 242 244 244 244 244 245 245 246 247 245 243 243 244 244 245 243 242 243 243 244 245 246
233 232 236 240 238 233 229 229 229 232 232 235 237 231 238 242 246 249 248 246 246 247 250 248 249 250 245 244 241 241 246 243 244 247 247 248 248 248 248 248 246 243 243 244 245 244 243 243 244 245 246 245 245 245
234 234 234 236 238 238 233 233 235 236 234 234 236 236 237 240 247 247 247 245 247 247 247 245 243 241 242 243 244 246 249 250 250 253 255 254 253 253 251 249 247 246 245 246 246 246 245 245 246 246 246 246 246 246

GFSWCAN_sfc_thetae_012.txt.gz
Theta_e
300 300 300 301 301 301 300 301 301 302 301 301 301 301 302 301 302 298 293 295 290 284 285 285 286 282 281 281 277 277 277 276 277 274 272 272 271 272 271 273 272 271 270 268 266 266 265 278 276 273 278 281 281 280
298 300 300 300 300 300 300 300 301 301 301 301 301 301 301 301 301 300 292 294 295 287 286 288 289 289 288 286 284 277 281 275 280 276 274 274 270 271 271 268 274 269 274 272 271 272 278 280 280 282 282 281 281 280
297 297 298 298 300 300 300 300 300 300 300 300 300 301 301 300 299 299 294 293 291 285 285 285 284 289 289 289 290 281 280 282 280 283 277 276 271 275 270 270 273 276 278 273 274 277 278 280 281 282 282 282 282 282
297 297 297 297 298 298 299 299 300 300 300 300 300 300 300 300 300 299 293 293 291 287 280 283 286 287 290 290 289 288 287 283 284 282 279 276 273 278 274 275 274 276 276 274 274 277 278 280 281 282 282 282 281 280
295 296 296 297 297 297 298 299 299 299 299 300 300 300 299 299 300 298 295 294 294 287 280 282 282 285 288 288 287 287 285 283 281 278 278 275 279 277 278 276 274 278 275 273 272 278 278 278 281 282 280 280 277 275
295 295 295 296 296 296 297 297 298 298 298 298 299 299 299 299 299 292 284 291 294 292 283 277 285 281 284 287 286 284 284 284 283 280 279 280 281 278 274 272 278 280 281 280 278 281 281 281 282 280 277 275 273 271
294 294 295 295 296 296 296 296 297 297 298 298 298 298 298 298 295 285 285 289 294 293 282 278 279 280 280 282 283 283 284 283 282 281 279 279 279 279 275 272 278 280 280 280 282 281 278 280 278 273 272 270 269 267
293 293 294 294 295 295 295 296 296 296 297 297 297 297 298 298 296 289 291 295 294 287 284 277 275 274 279 277 277 282 280 281 281 280 280 278 279 278 272 277 279 280 280 280 280 276 275 273 271 269 267 266 265 265
292 292 293 293 293 294 294 295 295 295 296 296 296 296 294 291 285 286 295 295 292 286 278 278 274 271 277 276 278 278 280 275 280 276 276 277 275 271 276 277 278 278 278 278 269 268 267 268 268 265 264 263 262 263
291 291 291 292 292 292 293 293 294 295 295 295 293 285 283 285 294 293 288 284 283 282 281 276 274 272 276 274 274 275 277 274 271 274 278 274 273 278 278 278 273 269 268 268 266 265 263 264 264 263 261 261 261 261
290 290 290 290 291 291 292 292 293 294 294 288 284 283 287 293 286 283 278 277 278 276 279 276 275 271 276 272 273 276 274 274 269 272 271 270 268 274 277 267 265 265 264 261 262 262 261 261 260 260 260 259 259 258
289 289 289 289 290 290 291 292 292 290 287 287 287 287 286 282 279 275 274 276 274 272 271 272 273 276 276 278 275 275 271 272 267 268 269 266 270 270 264 262 260 260 260 258 258 258 258 258 258 257 257 256 256 256
289 289 289 290 290 290 290 291 292 292 291 286 283 279 279 278 272 270 268 268 268 265 268 270 272 275 276 277 275 273 269 268 266 267 266 268 268 260 258 257 255 256 256 256 255 255 255 255 255 254 254 255 255 254
288 289 289 289 289 289 290 290 291 290 285 279 277 272 273 271 272 271 270 269 272 271 268 270 270 272 275 273 274 269 269 266 265 262 263 270 262 256 255 254 254 253 252 253 252 253 253 253 253 253 253 253 252 251
287 288 289 289 289 289 289 290 290 288 283 277 276 270 271 266 261 260 258 268 267 272 271 269 269 274 271 271 273 269 264 264 265 264 268 261 255 253 253 253 251 251 252 251 251 250 251 251 250 250 251 250 250 250
288 287 284 289 288 288 289 288 285 285 282 278 273 268 262 266 262 262 259 263 262 271 271 272 270 269 268 269 267 266 264 262 266 265 258 254 252 252 251 250 250 250 250 250 250 249 250 249 249 250 249 249 250 250
285 279 286 288 287 287 287 283 282 273 270 269 265 260 262 266 268 261 261 264 267 271 269 270 267 266 270 267 264 265 264 269 260 253 253 253 252 251 250 250 250 249 249 249 248 248 248 249 246 247 250 254 252 253
274 280 286 287 283 279 270 270 271 269 263 260 263 259 258 256 258 258 260 265 269 269 269 269 270 266 264 261 262 264 256 250 250 252 252 250 249 248 248 250 247 247 247 247 246 246 246 247 250 253 251 254 254 256
278 282 286 286 280 273 268 265 266 261 256 255 258 258 257 257 258 259 260 263 264 264 267 268 267 265 263 263 261 253 250 252 252 252 252 250 251 249 248 246 246 248 247 248 249 251 251 250 251 253 255 256 256 257
281 281 281 280 278 270 264 262 263 260 257 256 256 255 255 255 255 256 258 261 264 264 265 264 263 259 257 254 251 252 252 251 252 251 251 251 250 247 249 249 251 249 250 250 250 251 253 253 255 255 255 256 255 255
274 275 277 272 267 264 261 259 256 257 256 255 255 255 253 253 251 253 256 257 262 262 260 253 250 247 245 245 246 249 251 252 251 253 252 250 250 250 249 249 248 250 251 251 251 252 253 253 254 254 254 255 255 256
269 274 269 271 263 260 259 259 257 257 255 252 253 253 250 249 248 248 252 255 257 250 249 249 250 249 249 250 248 245 244 243 244 248 248 250 249 250 250 251 252 252 252 252 253 253 253 254 254 254 254 254 254 255
268 268 264 263 260 255 253 257 252 252 253 253 252 253 251 251 251 254 255 252 249 246 244 245 244 241 245 240 238 238 238 244 247 247 248 249 249 250 252 251 253 252 252 253 254 253 253 254 254 254 254 253 253 253
262 255 253 253 254 252 253 252 253 251 250 249 251 249 248 249 249 252 253 245 246 245 245 244 242 244 242 241 244 243 243 242 245 245 245 249 250 250 251 252 253 253 254 254 253 253 253 253 253 253 253 252 252 252
258 248 249 246 248 247 246 248 250 253 249 244 246 246 245 243 251 250 247 246 244 242 242 238 240 244 244 242 243 243 238 245 248 248 247 248 250 251 252 253 254 254 254 253 253 253 252 252 252 252 252 251 251 251
245 241 243 237 243 246 245 248 247 247 247 248 246 243 240 242 246 247 244 244 241 241 241 243 244 242 243 244 246 246 247 245 246 250 252 252 253 253 252 252 252 254 254 254 253 252 251 252 251 250 251 251 251 250
242 240 240 240 241 242 244 243 243 246 245 244 240 242 242 245 245 246 245 244 244 242 242 244 245 246 247 247 248 248 248 251 252 253 253 254 254 254 254 252 252 254 253 252 252 251 250 250 250 250 250 251 251 250
238 237 240 240 239 235 241 241 244 245 243 241 240 245 245 245 245 245 245 248 242 241 241 241 245 249 249 251 252 252 252 253 253 253 253 253 252 253 252 253 253 257 253 253 252 251 250 250 250 250 249 249 250 251
241 240 237 240 239 240 238 239 239 238 239 237 241 244 245 245 243 243 246 248 245 245 245 248 248 249 251 253 253 253 253 253 253 251 250 251 252 253 250 249 249 250 250 250 253 256 252 251 250 250 250 250 251 248
239 235 242 242 243 242 240 238 238 236 236 237 237 242 245 246 246 246 245 247 247 246 247 249 250 252 252 252 251 252 251 249 250 251 249 249 250 247 244 245 247 248 248 247 249 250 252 251 249 245 247 248 248 248
232 232 237 237 240 237 234 232 230 230 230 230 227 234 238 239 243 245 245 243 241 243 247 249 250 250 251 251 250 248 249 246 243 247 247 247 247 247 248 249 248 247 245 246 246 246 247 246 245 245 246 246 246 247
236 234 237 240 239 233 228 229 228 231 232 236 239 234 241 243 248 251 249 248 248 249 250 250 250 251 250 251 249 246 247 244 243 246 247 249 249 249 249 249 247 245 245 246 246 246 246 245 246 247 247 246 246 246
237 237 239 240 242 242 237 236 235 237 235 234 237 238 240 242 247 249 249 246 247 248 249 249 249 248 248 245 244 245 247 247 250 255 257 256 255 254 252 250 249 248 247 248 248 248 246 246 247 247 247 246 247 247

GFSWCAN_sfc_thetae_015.txt.gz
Theta_e
300 300 300 301 301 301 301 301 302 302 302 302 302 302 302 302 302 299 297 298 292 286 287 287 287 284 284 284 280 278 280 279 279 275 275 274 273 275 273 275 274 272 272 271 271 268 266 280 278 274 279 282 282 281
298 299 300 300 300 301 301 301 301 302 302 301 302 302 302 301 302 301 292 296 297 288 288 292 291 292 290 289 286 281 284 280 282 278 278 278 274 275 273 269 277 270 275 273 274 273 280 281 280 283 284 282 282 282
297 298 298 299 299 299 300 300 301 301 301 300 301 301 301 301 301 300 296 293 291 285 286 286 285 291 292 292 293 283 284 285 283 286 283 279 274 277 271 272 274 277 280 275 275 277 279 281 283 283 284 283 283 284
297 297 297 297 297 298 298 299 300 300 301 301 301 301 301 301 301 300 296 296 293 287 282 285 289 290 294 293 291 291 289 287 286 285 280 278 275 280 275 277 276 279 278 276 275 278 280 281 282 282 283 283 283 283
296 296 296 296 297 297 297 298 298 299 300 300 300 300 300 300 300 299 297 295 295 287 282 284 285 289 291 291 289 290 288 286 283 280 278 277 280 278 279 278 276 280 277 275 274 279 279 280 283 284 282 282 282 281
295 296 296 296 296 296 296 297 297 297 298 299 299 299 299 300 300 294 286 292 294 293 283 278 288 287 288 289 288 287 287 286 284 281 280 281 283 279 275 273 279 281 282 282 279 282 282 283 283 284 282 281 279 276
294 294 294 295 295 296 296 296 296 297 297 298 299 299 299 299 297 286 285 291 296 293 284 279 279 282 284 286 286 285 287 285 284 282 280 281 281 281 276 272 279 281 282 282 283 282 280 281 280 281 277 275 272 271
292 293 293 294 294 295 295 296 296 296 296 297 298 298 298 298 297 291 293 294 296 288 285 278 277 278 283 279 279 283 281 282 282 281 282 279 281 280 274 278 281 282 282 282 282 283 281 279 276 273 272 270 268 268
291 291 291 292 293 294 294 295 295 296 296 296 297 297 295 292 286 287 296 296 294 287 280 279 276 274 280 280 281 280 281 276 282 278 278 279 277 274 277 279 279 280 280 280 279 272 271 271 273 271 268 267 267 267
290 290 291 292 292 293 293 293 294 295 295 295 293 285 283 287 295 294 289 284 284 284 283 279 283 277 279 278 277 278 278 276 273 277 280 275 275 280 281 281 280 277 274 273 270 269 266 267 268 268 265 265 265 264
290 290 290 291 291 291 292 292 293 293 293 288 284 284 289 294 289 284 281 280 281 277 280 280 280 275 279 275 275 278 275 276 270 274 273 272 272 277 280 279 272 270 269 266 266 266 264 264 266 265 263 262 262 261
289 289 290 290 290 291 291 291 292 291 288 288 287 289 287 284 282 277 276 278 277 275 278 277 278 281 278 280 276 276 273 274 269 273 272 269 275 276 271 267 265 265 264 261 262 261 261 262 261 260 259 259 259 259
288 288 289 289 290 290 290 291 291 292 292 287 284 281 280 279 273 272 270 272 273 274 275 276 274 278 278 279 276 275 270 270 271 269 268 272 274 266 263 260 258 258 259 258 258 258 258 257 257 256 256 257 256 256
287 287 288 289 290 290 290 290 291 290 285 280 278 273 274 273 274 275 276 277 279 278 275 277 276 275 278 274 276 271 271 269 267 265 267 274 273 263 260 259 257 255 256 256 256 255 255 255 255 255 255 254 253 253
286 287 288 288 289 290 290 290 290 288 284 278 278 272 273 275 271 269 267 273 274 279 276 274 274 276 274 273 274 271 266 265 267 268 273 273 260 257 256 256 255 254 254 254 254 253 254 253 253 253 253 252 252 251
286 287 286 288 289 290 290 289 287 285 282 278 275 270 268 271 271 267 267 271 269 276 277 277 273 271 271 272 270 268 266 264 270 272 265 259 256 256 255 255 254 253 253 252 252 252 253 252 251 252 250 250 251 252
284 282 285 287 287 287 288 285 283 277 272 271 268 266 266 270 275 272 269 270 271 275 273 273 269 269 273 269 268 271 269 273 268 261 260 259 256 254 253 253 252 251 251 251 251 250 251 251 248 249 250 255 253 255
279 282 285 287 285 279 273 273 273 271 265 263 267 263 263 262 263 264 265 269 271 272 272 271 273 268 268 267 268 272 266 256 256 258 257 255 254 252 253 253 250 250 251 249 249 249 249 248 252 255 253 255 255 256
280 282 284 285 282 275 271 268 268 265 260 260 260 261 261 260 261 261 263 266 267 267 271 272 270 268 269 270 269 261 258 258 256 255 254 253 253 251 250 250 250 250 250 251 252 254 254 252 253 254 256 256 256 257
281 281 281 279 279 272 266 264 267 264 261 259 260 259 259 258 258 260 262 264 267 269 269 268 269 264 263 258 255 257 257 257 256 254 254 253 253 251 252 252 254 253 252 252 252 252 255 255 256 256 256 256 256 256
275 276 277 273 268 265 263 262 259 259 259 258 258 259 258 258 257 259 260 260 265 266 266 257 255 251 249 249 250 254 255 257 257 259 258 254 253 254 252 252 252 253 254 254 254 254 254 254 255 255 255 255 256 256
271 275 272 271 265 263 261 261 260 259 258 256 257 258 257 257 256 255 255 260 260 253 252 252 252 251 251 251 249 249 249 252 252 253 253 253 252 252 253 253 253 253 253 254 254 254 254 255 255 255 255 255 255 255
269 270 265 264 261 260 255 260 258 257 257 256 256 256 254 254 253 255 257 254 252 248 247 247 246 246 249 246 247 247 247 251 252 252 253 254 254 255 254 254 255 254 253 254 255 254 254 255 255 255 255 255 255 255
263 256 255 255 257 254 256 255 257 255 255 255 256 255 253 252 252 256 257 254 250 249 249 248 249 250 250 249 251 250 249 249 250 250 251 253 253 253 254 254 254 254 255 255 254 255 255 254 254 254 254 254 254 254
259 248 251 250 252 254 254 254 254 256 253 251 253 252 251 247 255 255 254 253 251 250 249 246 248 250 251 250 249 249 243 250 252 252 252 253 254 253 253 254 255 255 255 254 254 254 254 254 254 254 253 253 253 252
247 244 246 245 249 251 249 252 251 251 252 252 249 248 247 251 254 252 251 251 251 249 248 248 249 250 250 250 251 251 251 249 251 253 254 252 253 255 255 254 254 255 256 255 255 254 254 254 253 252 252 253 253 252
246 245 245 244 245 246 248 248 248 250 250 249 248 249 249 249 249 251 252 251 250 250 249 250 251 252 253 251 252 252 252 251 252 254 255 256 256 256 256 254 254 256 256 255 254 254 253 253 253 252 252 253 253 252
243 242 242 244 244 243 244 245 247 247 247 245 245 248 247 248 248 250 251 251 249 248 248 248 250 251 252 254 254 254 254 254 255 255 255 255 255 255 254 255 255 258 255 255 254 254 253 252 252 252 252 252 252 253
244 242 242 243 243 245 243 244 244 244 242 243 246 249 248 249 249 249 251 250 250 250 250 250 251 252 254 255 255 256 256 255 255 254 254 255 255 255 253 253 253 253 253 253 255 257 254 252 252 252 252 252 253 252
242 239 246 248 248 246 243 240 242 239 239 239 239 244 247 249 250 249 248 250 251 251 251 252 253 253 254 255 255 255 256 255 255 255 253 252 252 251 250 250 251 252 252 251 252 252 254 253 251 248 249 249 250 250
238 239 243 244 245 243 240 236 236 236 237 238 236 241 245 245 247 249 249 249 248 249 251 252 252 253 254 254 254 254 255 253 250 249 248 249 249 249 251 252 252 252 249 249 248 248 249 248 248 248 247 247 248 248
243 241 242 245 244 239 236 238 238 240 240 243 244 241 245 247 251 253 252 251 252 252 253 253 253 254 254 254 253 253 251 251 249 249 247 250 252 253 253 253 251 248 247 248 248 248 247 246 247 248 248 248 248 248
242 242 243 244 247 247 244 243 245 244 243 244 244 241 243 245 249 252 252 250 250 250 251 252 252 251 250 249 250 250 250 249 249 255 257 258 258 258 257 255 253 251 250 250 250 250 249 248 248 248 247 247 248 248

GFSWCAN_sfc_thetae_021.txt.gz
Theta_e
299 300 300 301 301 301 301 302 302 302 302 302 302 302 302 302 302 297 291 292 287 278 283 284 285 282 281 280 274 274 274 275 274 268 267 272 266 271 268 270 270 268 264 261 259 255 261 276 274 271 274 277 277 277
299 299 300 300 300 301 301 301 301 301 302 302 302 302 302 302 302 300 292 293 292 282 281 287 288 288 286 285 279 273 274 270 277 270 267 268 262 264 265 262 273 267 271 265 269 267 276 277 276 279 279 276 278 277
298 298 298 298 300 300 300 301 301 301 301 301 302 302 302 302 301 300 294 293 292 285 285 284 280 288 290 288 287 276 274 280 280 280 272 270 265 272 262 264 268 273 274 271 270 274 275 277 278 279 279 279 279 279
297 296 297 297 299 299 299 299 300 300 300 300 301 301 301 302 302 301 294 294 292 286 279 277 285 284 289 288 287 286 283 283 282 281 274 269 265 277 269 274 271 274 274 271 271 276 276 277 278 279 278 279 278 278
296 297 297 297 297 298 298 298 299 299 299 299 300 300 301 301 301 299 297 295 295 287 277 274 278 284 287 287 286 285 284 281 279 276 273 270 274 275 272 276 273 278 276 273 272 278 277 278 279 279 279 279 279 278
296 296 296 296 297 297 297 297 297 297 298 298 299 299 299 300 300 295 286 294 296 293 284 277 281 277 284 286 285 284 284 282 282 280 278 277 279 278 272 267 277 279 280 280 277 280 280 280 280 279 278 278 278 278
296 295 295 295 296 296 297 297 297 297 297 297 297 298 298 299 297 287 285 289 297 294 283 278 278 278 282 281 278 281 283 283 282 281 279 278 277 280 272 271 278 279 279 280 280 279 278 279 278 279 278 278 275 272
295 295 295 295 295 295 295 295 295 296 296 296 296 297 297 298 297 291 291 294 296 288 284 277 275 269 279 280 278 282 282 283 282 280 276 277 279 278 273 277 279 280 280 279 279 280 280 279 276 274 273 270 267 269
294 294 294 294 294 294 294 294 294 295 295 295 296 296 291 287 286 288 295 296 294 286 279 278 272 268 280 279 281 280 281 276 281 277 276 277 271 271 274 277 278 279 278 279 279 273 271 274 274 270 269 267 268 267
292 293 293 292 291 291 291 292 293 294 295 295 292 285 282 285 295 295 289 285 284 284 283 277 275 273 277 274 271 273 276 274 271 273 277 275 272 278 279 278 278 276 275 274 268 268 263 265 268 268 267 266 265 265
291 291 291 291 290 290 290 291 292 293 293 288 284 283 287 294 287 284 279 279 277 276 279 274 274 272 274 270 269 277 272 273 269 270 271 264 262 276 279 279 280 277 274 267 268 266 266 266 266 265 263 262 262 261
289 290 290 290 290 290 290 291 292 290 287 287 286 288 288 284 281 277 275 272 270 270 275 273 270 273 273 276 273 275 271 272 268 264 265 263 271 274 274 275 266 266 265 261 261 262 263 263 262 262 261 259 257 257
288 288 289 289 290 290 291 291 292 292 291 286 283 279 279 277 273 271 266 271 261 273 272 267 271 275 277 278 275 273 270 269 268 269 265 266 267 271 267 261 257 257 258 258 257 258 257 256 255 255 254 253 252 251
287 287 287 288 289 289 290 291 291 290 285 279 275 271 271 269 273 264 264 267 269 267 270 269 272 272 275 274 275 270 271 269 266 264 261 263 269 271 262 258 257 255 256 256 254 254 254 254 253 251 251 250 249 249
286 286 286 286 287 288 289 290 290 287 281 276 274 270 271 265 261 260 259 264 266 270 276 271 269 275 271 271 274 270 265 265 263 261 263 267 266 262 259 255 254 254 253 251 250 251 252 251 250 248 245 245 246 246
283 284 283 286 286 287 288 288 286 284 281 277 274 267 262 262 260 259 260 265 268 276 277 276 273 272 270 272 270 267 265 261 262 261 257 256 257 256 256 253 251 251 250 249 248 248 250 249 248 246 242 243 244 244
282 273 283 284 285 285 285 277 281 278 276 273 262 255 261 270 267 259 259 266 271 272 271 271 269 268 273 269 268 268 261 261 255 258 256 256 257 254 253 252 249 249 248 247 244 245 244 242 241 243 246 245 243 243
268 275 283 284 280 278 273 269 271 272 265 262 262 257 256 256 260 264 262 267 271 272 272 271 273 269 267 266 266 261 255 254 255 254 254 253 253 251 251 248 246 246 245 245 247 245 241 243 244 246 245 244 244 245
273 280 282 283 281 272 265 264 266 266 260 256 258 259 257 258 259 260 262 265 267 269 269 271 269 268 265 259 257 257 256 259 257 255 253 252 252 250 248 247 247 247 247 245 244 248 246 244 245 245 245 245 246 245
279 280 280 279 278 269 266 264 265 262 259 259 259 256 257 257 256 254 256 262 265 267 267 266 260 256 256 254 253 255 257 257 255 253 252 252 252 250 250 250 250 249 249 249 247 247 245 245 245 244 244 245 245 246
274 271 276 270 267 264 260 260 256 259 259 256 255 257 257 255 253 253 254 258 263 256 257 253 252 251 252 252 252 253 252 254 251 252 252 250 250 251 250 250 251 251 250 249 248 245 244 244 245 244 244 244 244 246
268 275 264 270 265 261 258 258 256 256 255 251 255 254 250 249 249 251 255 256 251 249 248 249 250 249 251 250 248 247 247 248 249 252 253 253 249 250 250 250 251 248 244 243 243 243 243 243 244 244 245 246 248 249
269 269 264 262 259 256 254 259 253 252 253 251 252 252 249 248 248 254 254 252 250 249 248 247 247 248 249 249 249 250 250 252 250 247 247 249 248 248 248 245 245 247 245 245 243 243 244 248 248 248 248 248 248 250
263 255 255 254 255 252 250 251 255 254 254 251 252 254 250 245 250 254 250 248 249 249 248 247 247 249 249 249 249 248 247 247 245 245 246 250 250 246 245 245 243 242 244 243 244 244 245 246 250 249 249 247 249 250
257 247 250 248 251 250 250 250 252 253 251 251 252 252 247 244 250 249 249 246 248 249 249 248 249 250 248 248 250 247 244 244 246 245 244 245 244 244 244 243 243 244 243 245 245 247 248 248 248 248 249 249 249 251
244 242 244 243 247 245 247 248 247 245 249 250 249 250 245 249 250 246 246 246 248 247 247 247 246 247 247 246 244 245 245 241 241 245 244 242 243 244 242 244 246 248 251 252 251 250 252 252 249 250 251 251 252 251
244 241 241 243 245 247 248 249 248 250 248 247 245 247 250 249 247 244 244 248 248 245 246 244 243 244 244 243 243 241 240 240 244 245 244 242 244 244 247 249 251 253 251 251 252 252 252 252 252 251 251 250 250 251
239 240 240 242 240 240 244 247 246 245 246 245 247 247 248 246 246 248 248 249 246 245 244 243 244 243 243 245 246 247 248 248 250 250 249 250 250 251 251 251 252 259 253 252 252 252 251 251 250 249 249 250 251 250
239 240 241 244 241 241 240 242 243 242 242 243 247 247 247 248 248 248 250 250 250 248 248 249 252 251 251 252 253 254 254 254 253 252 252 251 252 252 251 250 249 249 249 248 254 256 251 250 250 250 250 250 251 247
240 239 244 247 246 244 242 239 240 240 241 241 241 244 246 248 249 250 249 248 248 248 249 250 251 253 253 253 253 252 252 252 252 251 250 250 251 251 250 249 249 248 246 245 249 249 253 249 248 245 244 245 245 245
236 236 239 241 242 240 238 237 239 240 240 241 241 244 246 246 249 251 252 250 250 252 253 253 252 252 252 251 250 251 252 252 252 251 251 251 250 249 247 248 248 247 246 248 248 248 248 246 243 244 245 245 245 246
240 239 241 244 242 238 235 238 239 240 241 242 243 243 245 247 248 250 252 252 251 251 251 251 250 250 251 252 252 251 254 252 252 253 251 252 251 251 251 251 250 249 248 248 248 249 248 247 246 246 247 246 247 247
242 241 241 243 244 243 242 242 244 245 246 246 245 245 245 247 248 250 254 251 249 249 250 250 251 251 251 251 252 252 253 252 252 257 256 257 257 257 256 250 250 250 250 250 250 249 249 248 248 247 246 246 246 247

GFSWCAN_sfc_thetae_024.txt.gz
Theta_e
299 300 300 301 301 301 301 302 303 302 303 303 303 303 302 302 302 296 291 292 287 279 282 285 285 282 282 281 277 276 279 278 278 275 272 273 268 272 269 271 270 268 266 264 262 263 261 275 275 271 275 276 276 277
298 299 298 299 300 301 301 301 302 302 302 302 302 303 302 302 302 300 291 292 291 282 281 288 287 288 286 285 280 275 278 274 278 272 270 272 266 265 266 264 273 268 272 266 269 268 277 277 277 280 278 276 278 277
297 298 298 299 300 300 300 301 301 301 302 302 302 302 302 302 302 300 293 290 289 284 281 284 281 287 289 287 287 278 276 280 279 279 272 270 264 271 263 264 267 272 274 271 270 273 275 277 280 278 279 279 279 279
296 297 297 298 299 299 299 300 300 301 301 301 301 301 302 302 302 301 294 294 291 286 277 277 284 284 288 288 285 284 283 282 281 280 272 266 264 276 268 271 270 273 273 269 270 275 275 276 277 278 279 279 278 278
296 297 297 297 298 298 298 299 299 300 300 300 300 301 301 301 302 300 297 295 293 287 275 273 278 283 286 286 285 284 283 280 277 273 267 268 272 273 270 275 270 275 275 272 271 278 276 277 279 279 278 279 278 278
295 297 297 297 297 297 298 298 299 299 299 299 299 299 300 300 301 295 286 294 296 293 284 274 280 277 283 284 283 282 282 280 278 277 272 275 279 278 273 270 277 280 278 280 277 280 279 280 281 280 279 279 278 278
295 296 296 296 297 297 297 298 298 298 298 298 297 297 297 299 296 286 285 290 297 294 283 278 274 277 281 280 277 280 281 279 280 279 277 277 277 281 275 269 278 278 278 279 279 279 277 279 278 279 279 279 276 274
294 294 296 296 296 296 297 297 297 297 297 297 297 297 297 298 296 290 292 296 297 288 284 277 275 274 281 280 278 283 281 282 281 281 277 276 279 279 273 277 279 279 280 278 279 279 280 281 276 277 274 272 270 271
294 294 296 296 295 295 296 296 296 296 296 296 296 296 290 289 286 288 296 296 294 287 279 277 268 266 280 280 281 280 283 277 282 277 277 278 274 272 275 277 278 279 278 278 278 273 272 274 277 274 271 267 270 269
293 294 295 295 295 295 295 295 295 295 295 295 291 285 282 285 293 295 289 284 284 283 283 277 268 270 278 274 274 276 278 275 272 275 277 275 273 279 278 277 278 279 277 274 271 272 264 265 270 269 268 267 268 267
291 293 294 293 293 293 293 293 294 294 294 287 283 282 284 293 286 284 279 277 278 276 277 272 271 270 277 272 271 277 273 274 269 268 270 268 266 276 279 279 280 279 276 273 271 269 268 269 269 267 265 263 263 261
289 291 291 291 291 291 291 291 291 289 286 287 286 289 287 284 280 276 275 274 273 271 271 274 269 274 274 276 272 275 271 272 268 268 269 262 271 275 274 277 279 273 270 265 263 265 264 265 263 263 261 259 257 257
288 289 289 290 290 290 290 291 291 292 291 287 283 279 279 277 273 271 269 268 267 266 273 269 271 274 277 279 275 274 270 268 269 269 265 266 268 269 273 271 262 261 261 259 258 259 258 257 256 255 255 254 253 252
288 288 288 288 288 289 290 291 291 291 285 278 276 272 271 270 270 268 265 266 269 268 269 268 273 272 274 274 275 270 272 270 267 265 261 267 266 269 267 261 261 259 258 258 256 256 255 254 253 252 251 250 251 250
286 286 287 286 287 287 288 289 291 288 282 276 275 269 270 264 264 258 255 261 265 266 274 269 268 275 272 272 274 271 266 265 265 262 263 263 262 262 260 256 257 257 255 253 251 252 253 252 251 248 244 244 246 246
284 285 283 286 287 288 288 287 286 284 280 276 275 267 260 261 260 259 259 263 267 273 273 273 272 272 271 270 268 267 265 262 263 261 256 256 254 256 255 257 257 255 254 252 249 250 250 249 249 246 242 242 244 244
283 270 283 284 285 285 285 280 280 278 276 273 267 251 256 258 262 259 260 264 270 272 272 273 270 269 273 269 268 268 263 261 258 257 255 256 257 253 255 254 252 252 251 250 249 249 246 242 242 244 246 245 243 243
271 276 282 283 280 277 269 269 270 271 265 263 258 254 254 254 258 259 262 266 271 273 272 271 272 268 266 264 261 260 256 255 255 253 252 251 251 252 253 251 252 252 251 250 249 247 244 243 246 246 244 244 244 243
273 278 281 282 280 265 263 262 262 259 257 259 260 259 254 252 256 260 261 265 267 269 268 269 268 267 264 258 257 257 256 254 254 254 253 253 253 253 252 251 250 250 249 247 247 249 247 247 248 249 248 246 246 244
280 280 280 279 277 267 257 258 262 259 255 258 260 259 257 256 256 254 255 261 265 265 266 261 254 252 253 253 253 253 255 257 255 253 253 253 252 251 251 251 252 250 250 248 248 249 249 249 249 247 243 244 244 245
273 271 275 270 266 264 260 260 257 258 257 255 257 259 258 258 254 251 251 258 258 252 253 251 251 251 252 252 251 251 253 252 254 254 255 252 252 252 251 250 249 248 248 248 249 249 247 246 245 243 243 243 242 243
268 274 264 270 264 262 259 259 258 258 257 254 256 255 252 252 252 253 255 253 250 247 246 247 249 249 250 250 250 250 250 252 253 253 253 252 249 250 249 250 251 249 246 247 245 244 243 243 242 243 243 244 245 245
269 268 263 261 260 258 255 258 254 254 254 253 253 255 252 251 252 256 251 248 247 249 247 247 247 247 248 250 251 252 251 252 252 252 252 250 246 247 248 245 246 247 245 246 242 242 244 247 246 245 245 246 245 246
262 255 254 253 254 250 253 254 256 254 252 251 252 250 247 249 252 254 248 245 247 249 248 249 249 251 251 251 251 250 249 249 250 250 248 249 248 246 246 243 241 241 243 242 243 243 243 244 247 246 247 246 247 249
256 247 250 248 250 250 249 250 251 251 247 249 250 250 248 249 253 249 247 245 247 248 249 249 250 250 249 249 250 249 247 247 248 246 245 242 240 242 244 241 242 243 241 243 243 243 244 246 249 250 250 249 250 251
244 243 245 244 247 247 246 245 246 246 248 247 247 249 250 253 250 246 245 245 245 247 248 247 246 247 249 249 248 249 247 242 242 244 244 241 242 242 241 243 244 247 243 243 244 245 248 252 251 251 251 252 253 251
244 243 244 246 246 247 248 249 249 248 246 246 246 249 252 247 245 245 247 249 248 248 249 248 245 245 246 246 246 245 246 245 247 249 246 243 244 244 246 248 248 249 246 246 248 249 250 252 252 252 252 251 251 252
241 241 242 244 245 244 245 246 244 243 244 244 246 245 245 245 243 248 249 251 250 249 249 247 247 247 247 249 249 250 251 251 251 250 250 251 251 251 250 248 249 258 252 251 251 251 250 251 251 251 251 252 252 252
239 241 241 243 240 241 241 242 242 242 242 242 246 246 246 249 249 248 250 250 250 250 250 251 253 252 251 252 253 253 253 253 253 252 251 251 252 252 251 251 250 250 249 248 253 256 252 250 250 251 251 251 251 248
241 238 243 244 244 242 241 239 240 240 241 241 242 246 248 249 250 251 250 250 249 249 250 250 252 252 252 251 251 252 252 252 252 251 250 250 251 252 252 251 250 250 249 245 249 251 254 251 251 248 247 247 246 246
239 240 242 243 242 240 240 238 240 241 242 242 242 244 245 246 250 254 252 252 253 253 252 252 252 251 251 251 250 251 251 253 253 252 251 252 252 251 251 252 252 251 249 248 249 249 250 250 247 247 247 246 246 247
240 239 239 241 240 238 237 241 241 241 242 243 243 243 244 247 246 250 252 252 252 251 251 251 250 251 252 252 253 252 253 252 253 252 252 253 254 254 254 253 252 250 248 248 247 247 247 247 247 246 247 245 245 245
241 241 242 243 243 243 243 242 245 245 246 245 245 245 245 247 247 250 253 252 250 249 250 250 251 251 251 250 251 251 252 252 253 256 256 256 256 256 255 254 252 250 248 247 247 247 246 246 247 247 246 246 246 246

GFSWCAN_sfc_thetae_027.txt.gz
Theta_e
297 298 299 299 301 301 302 301 302 303 303 303 303 303 303 303 302 294 290 291 287 281 283 285 285 284 282 283 279 279 280 280 278 277 276 274 272 272 270 271 270 269 267 265 265 264 264 276 275 272 275 275 275 275
296 297 298 299 300 300 301 302 302 302 302 302 303 303 303 303 302 298 290 292 291 282 281 287 287 288 287 287 281 278 279 277 280 276 273 274 268 270 269 266 273 270 273 268 271 270 276 277 277 279 278 276 277 277
294 296 297 298 299 299 299 301 301 301 302 302 303 303 303 303 302 300 292 290 290 282 282 282 282 287 289 288 287 279 277 281 280 280 274 272 269 273 265 266 268 273 274 272 271 274 274 277 278 278 279 278 279 279
293 295 296 297 298 298 299 300 301 301 301 301 302 302 302 302 302 301 292 293 289 283 274 278 284 284 288 287 285 285 283 282 282 280 274 270 267 276 269 272 271 273 273 270 270 274 275 276 277 279 279 278 278 278
293 294 296 296 297 298 298 299 299 300 300 301 301 302 302 302 302 300 297 294 293 283 275 273 278 283 285 286 284 284 283 281 279 274 269 268 273 273 271 274 270 275 274 271 269 277 276 277 278 279 278 278 278 277
293 294 294 295 296 297 298 298 298 299 300 300 301 300 300 301 301 296 287 294 295 292 282 272 280 277 281 283 282 281 281 280 278 276 273 275 278 276 265 264 277 278 278 278 276 279 279 279 279 279 278 278 278 277
293 294 294 294 296 297 297 298 298 298 298 299 299 299 299 300 297 287 285 290 297 294 284 277 272 276 281 279 276 279 280 278 278 276 273 276 277 278 271 266 279 278 278 279 280 279 277 278 278 279 278 278 276 275
293 293 294 293 296 297 297 297 298 298 298 298 298 297 296 296 296 287 291 295 296 287 284 278 268 273 281 278 278 280 278 278 278 279 278 275 278 279 271 277 279 279 278 277 278 279 280 279 275 276 275 272 271 272
293 293 293 294 296 296 297 297 297 297 298 297 297 297 292 289 285 287 295 296 294 286 279 276 268 267 280 279 280 280 282 276 282 277 276 279 273 271 275 277 277 279 278 279 276 275 275 274 277 274 272 268 270 273
292 293 294 292 294 296 296 296 296 297 296 296 291 285 281 284 292 294 289 284 283 283 283 276 265 264 278 275 272 274 276 275 273 276 278 276 274 279 278 277 278 279 279 275 271 271 263 266 271 272 271 271 271 267
292 292 293 293 295 295 295 296 296 296 295 286 283 281 281 293 285 281 275 276 277 276 280 274 267 269 277 269 269 278 273 275 269 268 272 271 266 277 280 278 280 278 276 274 276 277 272 272 272 271 266 264 264 262
291 292 293 293 295 295 295 295 295 289 287 286 286 288 287 283 280 274 274 272 274 270 272 274 268 271 269 273 269 274 271 273 268 270 269 264 271 277 274 277 279 279 274 272 270 271 266 267 264 265 263 260 258 258
290 292 292 291 291 292 292 292 293 292 291 286 283 279 279 279 272 271 269 267 268 264 273 269 270 272 273 275 271 272 268 267 269 269 267 267 273 269 273 274 266 260 262 263 260 261 260 258 257 256 256 255 254 252
289 290 290 290 290 290 290 290 291 291 284 277 275 271 271 269 271 273 265 265 267 267 269 267 272 271 272 273 275 269 271 269 266 265 262 270 267 265 263 261 261 260 258 260 258 257 256 255 253 253 252 251 252 250
288 288 288 288 289 289 289 289 291 289 282 276 276 269 269 263 263 257 257 260 262 264 273 268 268 275 269 272 275 271 267 265 265 263 263 259 258 256 258 256 254 255 255 253 252 253 253 253 252 248 244 245 248 248
287 285 283 287 288 288 288 287 287 284 280 277 274 269 260 261 260 261 260 263 266 271 271 273 271 272 270 271 268 267 266 264 264 259 255 256 255 253 251 252 252 254 252 251 252 253 253 251 251 248 242 246 246 246
283 271 283 284 286 285 284 276 277 275 271 272 267 254 253 256 262 260 262 268 271 274 271 274 270 268 272 269 266 267 261 256 251 253 253 253 252 251 251 251 250 250 251 251 250 252 251 249 249 251 251 246 244 244
274 277 282 283 277 274 264 267 273 270 264 262 262 254 254 252 255 257 260 266 269 273 273 271 272 269 268 266 263 259 258 256 255 254 254 253 253 252 251 250 249 249 250 251 251 250 250 251 252 249 248 244 246 245
275 275 281 282 276 264 263 263 265 264 258 258 261 260 257 254 258 260 260 264 267 268 270 269 268 266 261 257 255 257 256 255 256 255 254 253 252 251 251 252 252 251 251 250 251 250 250 250 250 249 249 251 252 247
281 281 279 278 276 264 257 258 260 259 254 257 258 258 259 259 258 257 260 261 266 264 258 256 252 251 251 252 252 252 253 254 255 256 255 254 253 253 251 251 251 249 250 250 250 251 250 251 250 249 247 247 248 246
273 275 275 267 265 261 257 257 255 254 254 253 254 259 258 259 257 257 257 259 255 249 251 249 250 251 251 252 252 251 253 252 252 253 253 254 253 253 252 251 250 250 250 250 251 249 249 249 248 247 247 245 242 241
268 273 261 268 263 259 258 258 256 256 255 251 254 254 255 255 254 253 256 251 249 248 247 247 248 248 248 250 250 251 251 252 254 254 254 253 251 251 250 250 250 249 250 250 249 247 246 245 244 242 244 245 244 244
268 267 262 261 258 256 254 260 256 256 255 256 256 256 253 253 253 256 250 248 247 250 248 247 247 248 247 248 249 249 250 251 251 251 252 252 252 252 252 250 251 250 247 247 245 244 245 248 246 244 244 244 244 244
262 254 254 253 255 251 254 255 256 255 254 252 254 253 250 251 253 253 247 248 249 250 248 247 245 249 249 250 251 250 249 250 252 251 250 251 251 249 248 247 247 245 244 242 242 242 242 243 246 245 245 244 246 248
255 247 250 248 250 250 250 250 251 254 252 252 252 251 250 250 249 247 246 246 248 245 246 246 247 248 249 250 251 251 249 249 250 250 248 248 248 249 247 244 243 242 240 243 243 242 242 241 243 246 250 250 251 252
244 244 246 244 246 247 248 250 248 248 250 249 247 249 248 251 248 244 245 247 247 247 246 245 245 247 249 249 249 250 250 247 247 250 250 247 246 246 243 244 244 247 241 241 242 242 244 248 251 251 252 253 253 253
244 243 245 248 247 247 249 250 250 248 245 245 244 248 250 246 244 245 247 249 248 248 249 248 246 247 248 248 250 250 250 248 248 247 245 243 243 243 245 246 247 248 246 246 248 249 250 251 253 253 253 253 252 252
242 242 243 244 245 245 245 245 243 242 244 243 245 244 243 244 242 247 249 251 250 250 251 251 249 248 249 250 251 252 252 252 248 248 248 249 249 250 250 250 250 257 252 252 252 251 250 251 251 251 250 250 251 253
242 242 242 245 243 243 240 241 242 242 241 241 245 245 245 248 248 248 249 251 251 251 251 251 252 253 252 252 253 253 253 252 252 251 251 251 252 252 254 253 252 252 250 249 253 257 254 253 252 251 251 252 253 251
242 239 243 243 242 240 240 239 240 240 242 242 243 248 249 249 251 252 252 252 252 251 251 252 252 252 251 251 251 252 252 253 252 250 248 249 250 252 252 252 252 253 252 250 251 252 254 252 251 248 248 247 247 249
241 242 244 244 243 242 241 239 241 242 243 244 244 247 246 247 250 253 252 253 253 252 251 251 251 251 250 250 250 249 249 251 252 252 252 252 252 252 252 253 253 252 251 249 248 246 247 246 245 244 244 244 244 247
242 238 239 239 241 241 240 242 242 242 243 245 244 245 245 246 246 250 252 252 251 250 251 250 250 250 251 251 252 252 253 251 251 252 252 253 253 254 254 255 253 249 250 251 249 246 245 243 244 243 244 244 244 244
242 242 243 244 243 244 244 243 245 245 246 245 245 245 245 247 246 250 252 253 251 251 250 251 251 251 252 251 251 251 251 251 251 254 254 255 254 255 254 253 252 250 249 247 246 245 244 244 244 244 244 244 244 244

GFSWCAN_sfc_thetae_030.txt.gz
Theta_e
294 294 295 296 298 299 300 301 302 303 302 303 303 304 304 303 300 292 289 292 287 282 284 284 285 284 284 285 281 279 281 280 280 279 279 277 276 274 273 274 272 273 273 271 272 270 269 276 276 274 276 276 277 276
294 294 294 295 297 298 299 300 301 301 302 302 303 303 302 303 302 296 286 291 290 283 282 286 287 287 286 289 284 281 283 280 282 280 277 276 273 272 272 269 273 272 276 272 275 274 276 278 278 279 279 277 277 277
293 293 294 294 296 297 299 300 300 301 302 302 302 303 303 303 303 298 290 288 287 278 280 280 281 287 289 288 288 281 279 283 282 282 277 276 273 274 268 269 270 273 274 273 273 274 275 277 279 278 279 279 279 279
293 293 293 294 294 296 297 299 299 300 301 301 302 302 302 302 303 299 291 291 287 281 272 277 283 283 287 288 286 286 284 283 282 281 276 273 271 277 271 274 273 274 274 271 271 274 275 277 278 279 279 279 278 277
292 293 293 293 294 296 297 298 298 299 300 301 301 301 301 302 302 299 295 293 291 283 274 273 277 282 285 285 283 283 283 281 279 276 273 271 275 274 272 274 270 275 273 271 270 277 277 277 279 279 278 278 278 277
292 293 293 293 294 295 296 297 298 298 299 300 300 301 301 301 302 296 286 293 294 292 282 273 279 276 281 282 281 281 280 280 278 276 274 275 278 276 267 266 276 277 277 278 276 279 279 280 279 278 278 278 278 276
291 292 292 293 294 294 296 297 297 298 298 299 300 300 300 300 297 287 285 288 297 293 284 276 273 276 281 279 277 279 280 278 278 275 271 276 276 277 267 267 277 278 278 278 279 278 277 278 278 278 278 278 276 274
291 291 292 293 294 294 294 296 297 297 298 298 299 300 299 297 297 290 291 296 296 288 284 278 271 276 281 278 277 279 277 276 276 276 276 274 277 275 268 276 278 279 278 278 278 279 281 277 276 276 274 272 271 272
290 291 293 293 293 294 294 295 297 297 298 298 298 299 293 287 284 286 295 297 293 287 279 278 270 269 280 280 280 280 282 275 278 272 275 276 272 271 275 277 277 278 276 278 275 275 275 275 277 273 271 268 270 272
290 291 292 294 293 294 294 295 297 297 298 297 291 284 281 285 294 295 288 283 283 282 282 276 266 269 279 277 276 273 274 273 272 275 278 276 271 278 278 277 278 279 278 275 270 269 264 267 272 272 272 272 273 271
290 290 292 293 292 291 294 295 297 297 297 286 283 280 284 293 284 281 278 277 278 276 280 274 269 270 275 272 271 277 274 275 270 269 272 270 263 278 280 277 280 279 277 275 277 277 273 272 272 272 270 269 265 264
290 293 292 293 293 292 296 296 296 288 286 286 286 288 287 281 274 273 274 274 272 272 270 270 271 271 269 274 273 276 272 272 266 268 270 261 270 276 273 278 280 279 273 273 271 274 268 269 265 266 264 262 259 259
292 292 292 293 293 294 296 296 294 293 290 286 282 280 277 277 272 270 268 265 267 263 268 265 270 272 273 275 273 273 269 269 271 269 267 267 270 267 265 265 268 261 262 263 261 262 262 259 258 257 257 256 255 253
290 291 291 291 291 293 295 295 293 290 284 277 276 271 271 270 269 266 265 261 265 265 271 267 272 270 269 270 272 266 267 265 263 260 261 265 259 257 259 259 257 258 257 260 257 258 257 256 254 253 253 253 253 252
289 289 290 290 290 291 291 291 292 287 277 272 273 269 268 263 260 255 255 258 261 261 271 268 267 274 268 271 273 269 266 262 262 261 259 255 255 255 255 254 254 254 254 253 252 254 254 253 252 249 248 248 250 250
285 285 284 288 288 289 290 288 286 284 277 273 272 265 260 261 259 259 258 266 267 270 267 269 266 269 268 270 269 267 265 263 262 253 251 254 253 253 250 250 250 249 249 249 251 252 253 252 251 248 245 247 248 250
283 275 284 285 285 284 284 276 274 272 269 270 264 255 255 256 260 259 260 266 271 272 272 273 270 268 272 269 266 265 260 255 254 255 255 253 252 252 251 249 248 248 249 248 249 250 248 248 249 249 249 246 249 248
274 277 283 284 276 273 263 266 269 268 264 262 260 256 255 254 256 256 262 266 268 270 271 271 272 269 266 266 263 258 258 258 258 256 255 252 253 251 248 246 247 249 249 248 246 247 249 248 252 251 252 251 251 249
273 277 282 282 275 261 261 260 263 262 256 256 260 261 259 255 257 260 261 264 267 269 272 271 268 262 257 254 253 254 252 252 253 255 254 252 252 250 248 249 248 249 249 250 252 252 252 253 253 252 252 252 252 251
281 280 279 278 273 260 256 256 256 259 255 257 258 259 259 260 260 260 260 261 261 258 251 252 249 249 250 251 252 251 252 253 252 253 254 254 253 252 252 251 251 249 249 248 249 250 249 249 249 251 251 252 251 251
273 275 274 266 263 259 256 255 254 253 253 256 257 259 259 259 256 257 256 257 253 249 249 248 248 249 250 251 252 251 252 252 251 251 252 253 254 253 251 250 249 248 248 250 251 251 253 252 251 249 250 246 244 244
268 273 260 267 263 260 256 257 254 254 253 251 255 255 254 254 254 253 256 250 249 248 248 248 249 249 249 249 250 250 250 250 252 254 255 254 253 253 252 252 252 250 251 251 251 251 251 249 245 242 242 242 243 243
267 266 261 259 257 255 252 258 254 255 252 253 252 253 252 252 254 257 249 249 249 251 249 248 248 248 247 248 249 249 248 249 249 250 250 251 252 253 253 252 253 252 252 251 249 249 249 248 245 244 243 243 243 243
262 254 253 252 253 250 254 255 257 257 255 254 255 253 250 251 254 251 247 247 249 250 249 248 248 248 248 248 248 247 248 247 250 250 250 251 251 250 250 250 250 250 249 248 247 244 243 243 245 244 244 243 242 243
254 247 249 247 251 250 250 250 251 252 250 251 251 250 250 250 248 246 246 244 247 248 248 248 248 248 246 247 250 249 249 249 251 251 250 251 251 251 252 251 249 248 246 247 247 245 243 241 242 243 244 243 244 245
244 245 245 244 246 246 247 248 247 248 250 248 247 249 251 250 246 243 243 245 246 247 248 247 246 246 248 248 248 250 250 249 250 252 251 250 250 250 246 247 246 249 245 243 244 243 242 243 243 244 245 246 250 248
243 242 245 249 247 247 249 249 249 247 245 244 244 248 248 244 243 244 247 249 249 249 250 250 248 247 247 248 251 252 252 251 249 249 248 248 247 246 248 247 247 248 245 243 242 244 246 246 247 247 248 249 250 251
243 242 242 244 245 245 244 244 242 241 242 243 245 243 243 243 241 246 249 251 251 251 251 250 249 249 249 251 252 253 253 253 251 251 251 251 250 251 250 250 251 257 249 248 249 249 248 247 246 247 247 249 249 248
243 243 243 244 244 243 240 241 241 242 242 241 245 245 244 247 247 247 250 251 252 252 251 251 252 253 253 253 253 253 252 252 250 248 247 248 249 250 253 252 252 251 249 249 254 257 256 255 253 253 252 251 251 249
243 242 244 243 241 240 240 239 241 241 242 243 244 249 249 250 251 253 253 252 251 250 251 251 251 251 250 250 250 250 250 250 250 248 244 246 248 251 252 251 251 251 249 248 251 250 253 251 251 248 249 248 247 247
242 242 243 243 242 241 241 241 241 243 245 247 248 247 245 247 250 252 251 251 251 251 250 249 250 250 249 248 248 247 247 249 251 249 249 250 251 251 252 252 253 250 246 245 245 244 244 244 242 241 241 242 243 244
242 239 240 241 241 242 242 243 242 244 245 246 245 245 246 246 246 248 251 250 249 248 249 249 247 247 249 248 245 244 249 248 248 248 248 249 250 251 252 253 251 247 246 247 245 244 243 242 243 243 243 243 243 243
243 244 244 244 243 243 243 243 244 244 245 245 245 245 246 246 245 248 251 251 249 248 247 247 248 248 247 244 245 243 244 243 245 251 251 252 252 252 251 250 247 244 244 244 244 244 243 243 243 243 242 242 242 242

GFSWCAN_sfc_thetae_033.txt.gz
Theta_e
294 294 295 295 295 295 296 298 299 301 301 302 302 303 304 303 300 292 290 294 290 285 284 284 287 286 285 285 281 280 282 281 281 280 280 278 276 276 275 274 274 276 275 274 275 273 273 277 276 276 280 277 278 277
293 293 294 294 295 295 295 297 298 299 300 301 302 303 303 304 300 295 286 291 290 284 283 287 287 287 288 290 284 282 284 280 283 281 280 278 274 274 274 274 274 275 278 276 278 277 277 279 279 280 280 279 278 278
293 293 293 294 294 294 295 296 297 298 300 301 302 302 303 303 303 296 287 288 285 280 280 279 281 286 288 288 290 283 282 285 284 284 280 278 276 277 272 273 272 274 275 274 275 275 275 278 279 279 279 279 279 279
292 292 292 293 293 294 294 295 296 297 299 300 301 302 302 302 302 297 290 288 285 279 272 277 283 283 287 288 286 286 284 283 282 282 279 277 275 278 273 276 276 276 275 272 272 274 276 277 278 279 279 279 278 278
292 292 292 292 293 293 294 294 295 297 298 300 300 301 301 302 302 299 293 291 289 284 274 273 277 282 284 285 283 283 283 281 279 275 274 273 276 275 274 275 272 275 274 273 272 277 277 278 280 280 279 279 278 277
291 292 292 292 293 294 294 294 295 296 297 298 299 300 301 301 302 295 285 292 293 291 278 272 277 276 280 281 281 281 281 280 278 277 275 276 278 277 269 269 277 277 277 279 277 279 279 279 279 279 279 278 278 277
291 291 292 292 292 293 293 294 295 296 297 298 299 299 300 301 297 288 285 288 296 293 281 272 272 278 280 278 276 278 280 278 277 274 271 276 276 275 267 268 276 277 278 278 279 278 276 278 278 279 278 278 276 274
290 290 291 291 291 292 293 294 295 296 297 298 298 299 300 300 298 288 292 297 296 287 284 276 266 276 281 278 277 278 277 275 274 274 275 272 275 273 266 275 277 277 277 277 278 279 279 278 276 275 274 272 271 273
290 290 290 290 291 292 293 294 294 295 297 297 298 298 292 290 284 285 297 298 293 287 279 276 269 270 280 280 278 278 278 269 277 271 274 273 271 267 274 276 277 277 277 278 276 276 274 274 275 272 271 268 271 273
290 290 291 290 291 292 293 294 294 294 296 297 290 285 281 285 295 293 287 284 283 282 281 275 264 266 279 278 274 273 271 270 266 270 277 274 268 277 278 277 277 278 277 274 270 270 265 268 272 272 272 273 274 273
289 290 291 291 291 291 293 294 294 294 296 286 283 280 285 294 285 282 277 278 279 275 279 271 267 272 277 271 268 277 273 275 269 267 270 268 264 277 280 277 278 279 277 275 276 275 273 273 274 273 271 271 270 267
290 292 292 291 292 293 294 294 294 291 287 286 284 287 285 281 277 274 274 275 274 273 273 268 267 272 274 276 275 276 272 271 268 267 270 265 270 268 268 270 271 270 270 271 270 274 270 270 267 267 265 263 261 260
291 291 292 291 293 293 294 293 294 292 291 285 282 280 278 276 271 269 267 268 267 268 272 270 269 272 272 275 274 274 270 269 271 268 264 266 265 260 258 260 260 261 262 261 261 261 263 260 258 257 257 256 256 255
290 290 290 291 291 290 292 295 294 290 284 278 275 271 271 270 271 267 266 266 267 267 268 268 271 271 271 272 273 269 270 270 267 266 262 258 255 254 255 255 253 255 256 257 255 257 258 257 254 253 253 253 254 253
287 287 288 289 290 292 293 293 290 284 279 275 275 269 268 264 261 254 253 259 263 267 273 270 269 274 268 271 273 269 266 264 264 261 256 254 254 253 253 252 251 251 252 251 250 252 254 253 252 249 248 250 251 250
285 283 283 287 288 288 288 286 284 279 275 273 266 265 263 264 259 258 255 264 266 269 267 269 266 265 266 267 267 264 264 261 260 253 254 254 252 250 249 249 249 249 247 248 249 250 252 251 250 247 248 248 250 250
282 277 285 285 285 283 283 277 275 269 265 260 257 256 254 257 256 254 256 265 270 267 264 270 267 266 271 268 265 260 262 255 255 255 255 254 252 251 250 249 247 247 247 246 245 247 246 246 246 249 249 246 246 246
273 276 283 284 278 275 267 266 269 266 258 259 258 255 252 252 254 256 259 265 270 268 267 268 274 269 264 265 261 257 256 255 258 257 256 254 253 251 251 249 248 247 245 246 246 245 245 247 249 249 247 246 251 252
276 278 281 282 275 263 263 261 260 258 255 255 258 260 258 254 258 260 261 264 267 264 266 268 261 257 254 253 252 253 252 252 252 254 255 253 252 251 251 248 248 248 249 247 246 247 248 249 251 252 252 253 252 253
279 280 280 277 272 262 259 257 257 256 251 256 257 257 258 258 259 260 257 259 258 255 249 249 248 249 250 251 251 251 252 253 251 249 253 253 252 249 249 249 250 250 251 250 250 252 251 251 251 249 249 249 249 249
273 272 273 266 258 257 254 254 253 253 252 255 256 260 259 260 256 255 254 255 251 248 247 247 247 249 250 250 252 250 251 251 250 249 249 250 253 253 250 249 250 248 248 247 248 251 253 252 251 251 251 250 249 248
266 272 261 265 260 254 255 257 254 254 253 250 254 254 253 254 253 252 255 249 248 248 248 248 248 248 248 249 249 249 249 249 249 250 252 251 249 251 252 252 254 253 253 252 253 253 252 251 251 250 251 250 248 248
266 265 260 257 255 253 251 258 253 253 252 252 251 251 251 252 253 256 249 249 249 251 250 248 249 249 248 250 249 249 248 247 246 245 245 246 248 250 251 251 253 253 253 252 252 252 252 251 251 250 248 246 244 244
261 253 252 250 252 248 253 253 256 255 253 252 252 249 248 249 254 250 246 247 249 251 249 249 249 249 250 250 250 248 248 245 246 247 249 249 249 248 250 250 251 250 250 251 251 251 250 250 249 249 244 243 241 242
252 247 249 246 250 249 249 250 251 253 249 250 250 250 250 252 248 246 246 246 248 248 249 249 249 249 248 248 248 248 247 245 245 245 249 250 250 252 253 252 251 249 249 251 251 249 244 242 243 244 244 242 243 243
243 245 245 244 246 246 247 248 247 247 250 248 247 249 250 248 245 242 244 246 246 247 248 247 246 246 249 249 247 248 249 247 246 247 248 248 249 249 249 249 249 251 247 245 243 242 242 243 242 243 245 246 248 246
242 242 245 249 247 247 247 248 248 246 243 243 243 247 248 243 241 242 246 249 248 248 250 249 247 248 248 249 251 251 252 248 247 248 248 249 250 249 250 250 249 251 251 245 242 241 242 242 243 243 245 247 247 248
243 242 242 244 244 244 243 243 242 240 242 242 245 243 242 241 240 245 248 251 251 251 252 250 251 250 250 251 252 252 252 252 251 250 250 250 250 251 249 249 250 257 252 250 251 250 248 247 247 247 246 248 250 246
243 244 244 243 244 242 240 240 240 242 242 241 244 244 244 247 247 247 250 252 252 252 250 250 250 252 251 252 252 252 251 251 249 247 246 246 247 248 251 251 251 252 251 248 253 255 256 256 254 251 249 250 250 247
243 243 245 243 241 241 241 240 242 242 243 244 247 248 248 248 250 252 251 251 250 249 250 250 250 249 248 248 247 248 248 248 249 246 241 242 243 248 249 249 250 250 249 246 248 247 251 248 248 245 244 243 242 241
243 242 244 244 242 243 242 242 242 244 247 247 247 247 246 247 249 250 250 250 249 249 248 247 247 247 246 245 244 244 243 243 245 242 241 244 245 246 246 249 250 250 244 242 243 242 243 242 240 240 241 241 242 243
243 240 243 244 243 244 244 243 244 245 245 245 245 245 245 246 245 247 249 248 245 245 245 243 244 245 243 240 238 238 245 242 242 244 244 246 247 248 249 248 249 246 244 245 243 242 242 240 241 241 242 241 241 241
243 244 244 244 243 244 243 243 245 244 245 244 245 244 244 245 244 247 250 246 243 242 241 240 240 244 242 241 241 242 243 240 241 249 249 251 251 251 250 249 246 242 242 242 243 243 242 242 242 241 241 241 241 241

GFSWCAN_sfc_thetae_036.txt.gz
Theta_e
293 293 294 294 295 295 295 296 296 297 298 299 301 303 303 304 302 297 293 296 293 287 287 287 289 287 286 287 284 283 284 283 283 282 282 281 279 279 279 278 279 280 279 279 279 278 277 280 279 281 285 281 283 282
292 293 293 293 294 294 295 295 296 296 297 298 300 301 302 303 302 296 291 293 292 288 286 287 288 289 289 291 285 283 284 283 287 285 284 281 278 278 279 277 277 278 283 281 282 282 280 282 282 283 283 284 281 283
292 292 292 293 293 293 294 295 295 296 297 298 299 301 301 302 302 297 291 291 289 285 285 285 284 287 290 289 291 285 285 286 286 285 284 281 279 280 277 278 278 278 278 280 280 279 279 281 281 282 282 282 283 284
291 292 291 292 293 293 293 294 294 295 297 297 298 299 301 302 302 296 290 292 289 284 281 282 285 285 288 289 288 288 287 286 285 286 282 281 280 280 279 279 280 279 279 277 276 276 278 280 281 283 282 282 281 281
291 291 291 292 292 293 293 293 294 294 295 296 297 299 301 301 302 298 293 292 292 289 280 280 281 284 286 287 286 287 287 285 283 281 280 279 279 278 277 276 277 278 276 276 277 279 280 281 283 282 281 281 281 281
290 290 291 291 292 292 293 293 294 294 294 295 297 298 300 301 302 294 285 292 293 292 284 279 280 281 283 284 284 283 283 283 283 282 279 279 280 280 276 275 279 279 280 282 280 282 281 282 283 283 282 281 281 281
290 290 291 291 291 292 292 293 293 294 294 295 296 298 299 300 298 288 286 292 295 294 284 278 276 281 281 281 281 281 282 282 283 279 279 278 278 280 276 275 277 279 280 280 281 280 278 280 280 281 281 281 280 278
289 290 291 291 291 291 292 292 293 294 294 295 296 298 299 299 298 290 293 296 296 287 285 276 273 277 282 279 278 281 280 281 280 279 278 278 278 278 274 277 279 279 279 279 279 281 281 281 280 279 278 277 276 276
289 290 290 291 291 291 291 292 292 293 294 295 296 298 295 293 285 287 297 298 294 288 281 278 273 272 282 280 280 280 281 276 279 276 277 278 275 273 277 278 278 279 279 280 279 278 276 277 278 276 276 274 276 277
289 289 290 290 291 291 291 292 292 293 295 296 294 285 282 285 293 296 286 284 284 284 283 275 274 274 280 279 277 278 278 275 272 275 279 276 274 279 279 280 280 280 280 278 274 274 271 274 275 276 275 278 278 279
289 290 291 292 293 293 292 291 292 293 294 288 284 282 287 294 287 284 279 280 279 277 279 273 274 275 280 276 276 278 275 276 271 273 274 272 272 276 268 276 272 274 276 278 280 281 279 280 279 278 275 275 275 274
289 291 290 290 292 292 293 292 292 291 286 287 287 288 285 282 279 276 275 277 276 274 273 272 273 276 277 280 278 278 275 275 271 274 273 269 273 264 261 262 263 263 263 266 270 274 274 274 273 272 271 270 268 267
288 289 290 290 292 291 292 292 293 293 291 285 284 281 279 278 272 271 269 270 272 272 272 274 274 276 276 279 277 276 272 271 273 271 270 272 263 260 257 257 257 259 259 261 263 265 266 264 262 263 263 261 261 259
287 288 289 290 291 292 293 293 294 291 285 279 276 272 273 271 273 270 272 273 272 272 274 275 272 276 276 275 275 271 271 272 269 267 268 262 257 255 255 255 253 254 254 256 257 259 260 259 257 256 256 258 258 257
285 286 287 287 289 290 292 293 293 286 281 276 276 269 271 266 262 260 260 268 268 275 276 274 274 276 273 273 274 270 268 267 269 268 261 258 255 254 253 253 251 252 252 253 254 255 256 255 254 252 252 254 255 254
284 282 282 287 287 288 291 287 282 281 272 271 264 268 264 268 266 265 266 269 269 273 273 275 272 272 270 272 268 268 267 266 264 257 257 256 254 253 252 251 250 250 250 252 252 254 254 253 252 251 252 252 253 254
281 276 284 285 284 283 283 278 275 268 266 266 261 259 259 262 261 261 262 267 271 273 271 271 268 268 273 268 263 260 261 256 256 256 257 255 253 252 251 251 250 250 251 251 251 251 250 251 251 253 252 251 252 252
273 276 283 284 279 276 269 267 268 264 259 260 261 258 259 259 260 260 262 265 270 271 270 269 272 265 262 261 258 256 255 256 257 256 256 255 254 254 253 252 252 251 251 250 250 250 251 252 253 252 251 252 252 253
278 279 281 281 276 267 266 263 263 259 257 259 261 261 259 259 260 259 260 262 262 261 262 262 255 253 252 251 252 253 252 253 253 254 256 254 254 253 253 253 252 252 251 251 252 252 252 252 254 255 255 256 255 256
279 280 279 276 272 266 262 259 262 260 257 258 260 259 259 259 260 257 255 257 256 253 248 248 247 247 249 250 251 252 252 253 252 253 255 255 254 252 251 251 253 253 253 253 254 254 255 254 254 255 255 255 256 255
272 272 273 265 259 259 257 257 257 257 258 257 258 260 259 258 255 254 252 254 251 248 247 248 248 249 251 251 252 251 252 251 251 251 251 252 254 254 253 253 252 253 253 253 254 254 254 253 253 254 255 254 253 253
265 271 261 263 259 256 255 258 256 257 257 255 256 256 254 253 252 251 254 249 248 248 249 248 249 249 249 250 250 251 250 250 250 251 252 252 252 252 252 252 253 253 253 253 254 254 253 253 253 254 254 253 253 253
265 264 259 256 255 253 252 257 253 253 254 254 255 253 252 252 254 255 249 249 249 251 250 249 249 250 249 251 251 251 250 250 250 250 250 251 251 251 251 251 252 252 253 252 253 254 253 253 253 253 253 252 252 252
260 252 251 249 250 248 253 253 256 253 254 252 251 249 248 250 254 249 245 246 249 251 250 249 250 251 252 252 250 250 249 250 251 251 250 251 251 251 251 251 251 251 251 252 253 253 253 252 251 252 251 251 250 250
250 245 247 244 249 248 248 249 250 250 248 248 247 249 249 250 246 244 245 246 248 248 249 249 249 250 249 250 251 251 250 250 250 249 250 250 252 252 252 251 250 250 251 252 251 251 251 250 250 250 250 249 249 250
242 245 244 243 245 244 246 245 246 246 249 246 246 249 250 247 244 242 244 246 247 248 248 248 247 248 249 250 249 250 251 251 250 250 250 250 250 249 249 249 250 251 251 248 248 248 248 248 247 246 248 249 251 251
242 241 245 249 246 246 246 246 247 245 242 242 243 247 246 242 241 243 247 250 249 250 251 250 249 249 249 250 251 252 253 251 250 251 251 251 250 250 251 249 248 251 253 251 249 247 247 247 248 248 248 250 249 250
244 243 241 244 243 243 242 242 241 240 241 242 244 242 241 240 241 246 249 251 251 252 252 252 252 251 251 251 251 251 251 251 252 252 252 252 250 251 250 251 251 256 253 252 252 254 252 252 251 251 250 250 251 252
243 244 244 243 243 242 240 240 241 242 243 241 244 243 244 246 247 247 250 252 252 251 249 248 249 249 249 249 248 249 249 248 245 242 241 243 244 246 249 249 248 249 249 248 251 254 254 255 253 252 247 248 248 247
243 244 244 243 242 241 242 241 242 244 243 244 247 248 247 247 249 251 250 249 248 247 247 246 245 245 243 244 243 243 242 243 241 241 239 241 242 245 246 247 247 248 250 244 247 247 250 248 247 245 245 245 246 245
244 243 243 243 243 243 243 244 244 247 249 248 248 246 245 246 248 249 249 246 245 244 243 243 241 238 238 240 238 238 240 240 240 240 239 241 243 244 245 246 248 249 245 244 244 243 244 244 243 242 242 242 242 244
244 240 243 243 242 244 245 244 244 245 245 245 245 245 245 245 243 244 246 242 239 238 240 237 236 243 241 238 237 238 242 242 240 244 242 245 245 246 248 248 248 244 243 244 243 243 243 242 242 242 243 242 242 242
244 244 244 244 243 244 244 244 245 244 245 243 243 243 242 242 241 244 246 241 241 239 239 238 239 240 240 239 240 241 242 240 239 248 247 250 250 251 250 249 246 241 242 243 243 243 242 242 241 241 241 241 241 241

GFSWCAN_sfc_thetae_042.txt.gz
Theta_e
295 295 295 295 295 295 295 295 295 295 296 296 297 297 297 297 300 299 297 299 295 288 289 290 291 288 287 287 287 285 285 284 283 283 284 284 284 282 282 282 280 281 280 280 283 281 280 281 281 283 283 281 283 284
294 294 294 295 295 295 294 294 294 294 295 296 296 297 297 297 298 300 293 298 297 290 289 289 290 292 292 291 287 285 285 285 287 285 284 285 281 281 283 280 281 281 285 283 285 283 281 281 281 283 283 283 284 286
293 293 293 294 294 294 294 294 293 294 294 295 295 296 297 298 298 298 294 293 292 285 287 283 283 288 291 291 293 285 285 287 286 287 286 285 281 282 280 281 278 280 282 282 282 281 280 282 284 283 281 281 282 284
292 292 292 292 293 293 293 293 293 293 294 294 295 295 296 297 298 298 294 294 292 287 283 280 286 284 288 290 290 290 289 287 286 286 285 283 282 282 279 280 281 280 282 280 276 278 281 283 283 284 285 281 280 281
291 291 291 292 292 292 293 293 292 292 293 294 294 295 295 296 298 297 295 296 295 289 282 279 280 283 286 288 288 290 288 286 285 283 283 281 281 280 278 279 278 279 280 280 279 281 283 284 286 286 285 282 280 280
290 291 291 291 291 292 292 292 292 292 293 293 294 294 295 295 297 293 285 293 297 295 284 275 282 282 281 285 287 287 286 285 285 284 281 281 281 281 278 274 280 280 281 284 281 282 285 284 286 285 282 281 281 280
290 290 290 290 291 291 292 292 292 292 293 293 294 294 295 295 294 287 285 291 297 294 284 277 277 281 281 281 279 281 283 283 284 282 281 279 278 281 278 273 280 280 280 280 281 281 278 279 280 282 282 281 280 278
289 289 290 290 291 291 291 291 292 292 292 293 293 294 294 295 294 289 294 296 296 287 285 279 272 277 281 278 274 280 278 279 279 279 278 277 278 279 274 280 279 279 280 279 280 279 279 279 278 278 278 277 275 276
289 289 289 290 290 290 290 291 291 292 292 292 293 293 291 289 285 286 296 296 295 288 281 277 271 273 282 281 278 276 280 274 278 273 276 276 272 271 276 278 277 276 277 278 277 276 275 276 276 275 274 273 274 274
288 288 289 289 290 290 290 290 291 291 292 292 289 284 281 286 294 295 290 285 284 284 284 276 274 273 281 279 276 274 274 270 265 272 277 269 268 273 270 270 269 269 269 271 273 273 272 272 274 274 273 274 274 274
288 288 289 289 289 290 290 291 291 292 292 286 282 281 285 295 289 284 281 280 280 278 281 277 274 275 281 274 274 278 269 270 268 268 268 263 264 269 266 265 266 265 265 265 266 269 271 271 273 274 273 272 271 270
288 288 289 289 290 290 291 291 291 289 286 285 285 288 286 283 282 279 278 279 278 274 275 271 273 275 276 280 272 272 269 272 265 270 266 263 266 261 260 260 260 260 259 260 262 263 265 266 264 266 265 264 263 263
287 287 287 288 289 290 290 291 293 293 291 287 283 281 276 278 274 273 271 272 272 273 276 277 273 275 275 279 273 275 267 267 274 266 264 261 261 258 256 256 256 256 256 257 258 260 260 259 258 257 258 258 258 258
287 285 286 286 287 289 290 291 293 291 283 280 275 273 274 272 271 268 272 274 277 275 276 277 276 277 275 272 275 271 273 272 267 261 262 256 255 252 254 254 251 252 252 254 255 256 256 256 255 254 254 255 255 255
287 287 285 284 287 288 289 292 293 287 278 277 272 270 272 268 267 263 266 269 273 280 280 276 276 278 275 274 274 271 268 268 267 262 256 255 254 253 252 252 250 250 251 252 253 253 254 254 253 252 252 252 253 254
284 283 280 285 286 287 290 286 281 278 270 268 260 264 266 268 268 269 272 273 275 279 277 277 275 273 272 272 270 269 268 264 256 252 255 256 253 252 249 249 249 250 251 252 252 252 252 252 251 249 251 253 252 253
281 275 283 284 285 281 283 278 273 268 266 265 261 262 263 264 262 262 264 264 268 278 274 276 272 270 274 268 261 256 253 254 256 255 255 255 254 253 250 249 249 249 250 250 248 250 249 249 250 253 252 251 253 253
274 277 282 283 281 277 270 270 268 265 261 262 258 259 258 257 259 258 259 261 265 272 270 264 267 259 255 257 252 253 255 256 256 255 254 254 253 253 252 250 250 250 250 251 250 251 252 252 252 251 249 250 252 255
276 278 280 281 279 271 267 264 266 260 259 261 263 263 260 258 258 257 257 260 259 258 258 255 249 250 249 250 251 251 252 252 252 255 255 254 253 253 253 253 253 253 253 253 252 252 252 253 253 253 253 253 252 252
279 279 278 276 276 270 263 262 267 262 259 260 262 259 258 257 257 257 254 255 255 251 246 246 245 246 248 249 251 251 252 253 253 254 254 255 255 254 252 251 252 253 254 255 254 255 253 253 254 254 253 254 252 251
272 272 273 269 265 263 260 261 259 260 262 259 260 261 258 258 253 253 252 253 249 248 246 247 247 248 250 250 251 251 251 251 251 251 250 252 255 254 253 255 254 253 253 254 253 253 252 251 250 251 250 249 249 251
266 271 263 265 264 262 260 261 260 261 260 259 259 258 255 252 251 250 253 249 247 248 248 248 248 247 248 248 249 249 249 250 252 253 254 254 251 250 250 251 252 251 251 251 252 252 251 251 250 248 247 247 249 249
265 264 260 257 257 256 255 262 259 258 257 257 257 254 253 251 252 255 248 249 249 251 250 249 250 251 250 251 251 251 252 253 251 252 253 252 252 252 251 251 250 249 249 251 252 250 248 252 249 248 248 248 248 248
260 252 251 250 250 248 254 254 257 257 256 254 253 250 250 251 253 249 245 246 249 250 250 250 251 251 251 251 250 250 251 254 252 252 252 253 251 251 251 250 249 248 246 246 247 246 248 247 249 248 247 245 246 247
248 243 246 242 247 247 247 247 249 252 250 251 250 249 249 251 247 246 245 246 248 248 249 250 250 250 249 249 250 251 252 252 251 249 250 251 252 252 252 251 248 248 246 247 247 245 245 244 244 244 244 243 243 243
240 245 242 242 243 244 245 244 244 245 248 247 248 251 250 247 244 242 244 246 247 248 248 248 248 248 249 249 249 249 250 252 251 249 249 250 249 248 247 247 246 247 250 246 244 242 243 244 242 244 244 244 246 244
239 242 247 248 245 245 244 245 245 243 241 242 244 246 245 241 241 244 248 250 249 249 250 249 249 248 247 248 249 249 250 250 248 247 248 247 246 245 244 242 241 244 246 245 243 241 244 245 245 248 244 243 242 243
245 245 242 245 243 244 241 241 240 239 240 243 243 241 240 240 241 246 249 251 250 249 247 245 245 243 241 241 241 243 241 244 243 244 246 246 243 242 241 241 242 252 246 245 245 247 244 245 245 248 247 245 245 243
245 246 246 243 243 243 241 241 241 242 244 240 239 240 241 244 245 246 248 249 247 244 240 240 241 240 240 239 239 238 238 240 240 239 237 238 239 242 242 241 242 243 243 241 249 251 250 250 250 248 246 244 246 245
244 247 244 243 241 241 243 244 244 246 244 245 246 246 245 244 246 248 245 243 242 240 238 237 236 235 236 235 237 239 236 236 238 238 236 237 238 240 242 242 242 242 243 240 245 244 248 247 246 242 242 242 243 243
246 246 243 243 242 243 244 245 247 248 245 244 244 243 241 243 245 244 243 239 236 235 236 236 235 234 236 236 234 234 238 237 236 237 237 238 240 240 240 242 243 242 243 241 241 241 244 243 242 241 241 241 241 242
242 240 242 241 241 244 244 243 242 243 241 240 240 238 239 238 237 238 241 238 236 237 238 236 234 238 237 237 236 237 242 241 240 241 239 242 242 242 244 245 246 247 243 243 243 243 242 241 241 241 241 240 240 240
238 239 237 237 238 237 237 238 238 237 237 235 237 235 235 237 239 241 243 239 240 239 238 238 238 238 238 239 239 239 242 240 239 248 249 249 249 249 249 248 248 245 243 241 242 242 241 241 240 240 240 240 240 240

GFSWCAN_sfc_thetae_045.txt.gz
Theta_e
295 295 295 295 296 296 296 296 296 295 295 296 296 297 298 298 298 294 293 298 294 285 289 291 289 287 287 287 287 285 285 285 284 283 284 284 284 283 282 283 281 283 283 282 284 282 281 285 283 285 284 281 282 284
294 294 294 295 295 295 296 296 295 295 295 295 295 296 296 297 298 297 288 297 299 288 287 289 290 292 293 293 288 286 286 284 287 285 285 285 282 282 283 280 283 282 284 282 285 284 285 283 285 284 283 282 284 285
293 293 293 294 294 294 295 295 295 294 294 294 295 295 296 296 297 296 291 293 293 285 285 285 281 286 291 292 294 286 285 288 287 287 286 285 282 283 282 281 278 281 283 283 283 283 280 281 283 283 282 281 282 285
292 292 293 293 293 293 294 294 294 294 294 294 294 295 295 295 296 296 291 294 292 286 282 281 285 283 288 291 291 291 289 288 287 286 285 283 283 284 282 282 281 282 283 281 280 279 281 284 283 285 285 282 282 282
291 291 292 292 292 292 293 293 293 293 293 293 293 294 294 295 295 294 294 294 295 288 281 278 278 281 284 289 289 290 289 286 285 283 283 282 282 281 279 280 279 280 281 281 281 283 285 285 286 286 285 284 281 281
290 291 291 291 291 291 292 292 293 293 293 293 293 293 294 295 295 290 284 292 295 293 283 277 281 279 280 284 288 288 286 285 285 284 282 281 281 281 277 274 281 281 282 285 284 284 285 284 285 286 286 282 281 280
290 290 290 291 291 291 291 292 292 292 292 292 293 293 294 294 290 285 284 290 296 294 284 275 275 281 281 281 282 282 284 284 284 282 281 280 279 281 276 271 281 280 281 280 281 282 281 280 281 283 283 281 280 278
289 289 290 290 290 290 291 291 291 291 291 292 293 293 294 294 293 287 291 295 296 288 284 277 273 277 282 275 276 280 279 280 281 280 278 278 279 280 275 279 278 278 279 278 279 279 280 279 279 278 278 277 275 276
289 289 289 289 290 290 291 291 291 291 292 292 292 293 290 286 281 283 294 296 294 287 280 275 272 271 281 280 276 275 279 270 276 272 276 276 270 271 272 275 272 270 271 272 276 275 276 276 276 275 274 273 274 274
288 288 289 289 289 290 290 290 290 291 291 291 288 282 271 284 292 293 287 284 284 283 283 276 272 271 279 276 272 269 269 267 263 270 276 266 264 270 267 266 266 266 266 267 270 270 270 271 273 273 273 273 273 273
288 288 288 289 289 289 290 290 290 290 290 285 279 279 280 292 285 282 278 278 280 277 281 278 267 275 280 268 268 276 267 265 262 266 267 258 261 266 263 263 263 262 263 263 264 267 268 267 268 270 269 268 268 268
287 288 288 289 289 289 290 290 291 287 285 284 282 285 285 278 280 273 274 277 277 275 275 273 274 274 274 277 272 274 268 269 261 263 264 260 264 259 258 258 258 258 257 258 259 261 263 262 261 263 261 261 261 261
287 287 287 287 287 288 289 290 290 290 290 286 282 277 277 270 272 265 265 267 272 272 274 273 273 274 276 279 274 274 271 268 270 262 262 259 259 257 254 254 254 254 255 256 256 258 258 257 256 256 256 256 256 257
287 288 286 285 285 286 288 289 290 289 285 279 275 267 273 267 267 272 261 268 274 272 273 278 274 275 278 275 276 272 272 270 262 262 261 254 254 252 252 252 250 251 252 253 253 255 255 255 254 253 253 253 253 253
287 287 286 284 285 286 287 288 289 286 280 274 271 265 272 265 258 260 266 271 273 278 279 277 276 277 273 273 274 271 266 266 262 260 253 254 253 252 251 250 249 250 251 251 251 252 253 252 252 252 251 251 252 253
285 283 278 284 285 286 286 286 282 276 267 263 261 265 264 260 262 260 265 270 267 279 279 279 275 273 272 272 269 263 263 258 253 249 252 254 252 251 250 249 249 249 249 250 250 250 252 251 250 249 251 251 251 251
281 270 281 283 284 282 282 275 272 267 265 258 259 259 254 258 260 260 261 260 263 269 274 276 271 269 272 264 256 254 252 252 252 252 253 253 252 252 251 250 248 247 248 249 250 251 250 249 249 252 252 249 249 249
270 275 282 283 280 276 270 270 266 261 257 260 259 258 256 255 255 255 256 259 260 264 265 260 262 255 253 253 250 251 253 254 254 253 253 253 253 253 252 249 249 249 250 250 249 250 250 252 254 253 251 250 252 252
275 276 280 281 277 270 266 265 266 257 258 260 260 261 258 256 257 255 255 257 257 255 254 252 248 247 247 249 250 250 251 252 253 254 254 254 253 252 253 252 252 252 252 250 252 252 252 253 253 254 254 254 253 253
279 278 278 277 276 268 262 261 266 261 258 259 260 258 257 255 255 255 252 253 253 250 246 245 245 246 248 249 250 251 252 252 253 253 253 254 254 254 253 253 253 253 253 252 253 253 251 252 253 253 251 251 251 249
270 270 272 268 265 263 261 260 259 261 261 258 258 259 256 256 252 251 250 252 249 247 245 247 247 249 250 250 250 251 251 252 252 252 251 252 253 253 253 253 252 251 251 251 250 250 250 250 251 251 249 247 249 248
264 270 261 264 263 261 260 261 260 261 259 257 258 256 253 251 250 249 252 247 247 247 248 248 248 248 249 249 249 250 250 251 252 253 253 253 250 250 250 250 250 249 249 249 248 247 247 248 248 247 246 246 248 247
263 263 258 255 256 255 254 261 256 258 256 255 255 253 251 250 252 254 247 248 248 250 250 249 249 249 249 249 250 251 252 251 250 251 251 251 251 251 250 249 249 247 247 248 246 246 246 249 249 248 248 247 246 246
259 251 248 248 248 246 253 252 256 256 255 253 252 249 249 250 253 248 244 245 248 250 249 249 250 249 249 250 249 249 250 250 250 250 252 251 250 250 250 249 249 249 246 246 246 243 244 244 246 245 244 241 241 242
247 242 244 240 245 245 247 248 248 251 249 250 249 249 249 251 246 245 244 245 247 247 248 249 249 249 248 248 249 249 251 250 249 248 249 251 252 251 250 249 248 247 245 246 245 243 242 242 243 243 242 240 241 242
239 242 240 241 241 242 244 244 244 244 247 247 248 250 249 247 244 242 244 246 247 247 247 247 247 247 247 247 247 247 247 249 249 248 247 248 248 245 245 245 245 246 248 244 242 240 241 243 241 242 243 244 244 241
238 239 244 246 244 244 243 244 244 243 242 242 243 246 246 242 241 244 248 249 248 248 248 248 248 247 245 243 245 244 245 244 243 245 246 244 244 244 244 242 241 243 242 240 239 238 239 240 242 243 244 242 240 240
244 244 241 244 241 240 238 240 240 240 241 243 244 241 241 241 242 246 248 250 249 248 246 244 244 244 243 243 241 241 239 239 241 245 246 243 239 239 238 238 239 250 244 242 243 245 241 242 243 244 243 244 245 244
245 247 246 242 240 241 241 240 241 243 244 241 242 241 241 244 244 246 248 247 244 243 242 242 243 240 241 239 237 235 235 238 240 238 237 237 237 241 239 241 240 241 240 238 246 250 250 250 249 247 245 244 244 244
245 247 243 241 239 240 243 243 242 245 245 243 245 246 244 244 245 246 244 242 242 241 239 237 235 236 235 235 235 238 234 233 237 239 236 236 238 239 239 239 240 240 240 236 243 243 247 245 244 239 240 241 242 242
246 245 242 242 241 242 243 244 241 241 240 239 238 239 238 239 241 240 240 235 233 232 235 235 235 231 235 235 234 234 238 236 234 236 235 237 238 238 239 241 242 240 239 240 241 240 242 242 242 241 240 240 240 241
242 238 241 240 241 242 241 239 236 236 236 238 237 234 237 237 237 238 240 236 236 237 237 234 234 238 236 235 234 236 241 240 239 241 239 240 240 241 242 243 243 242 243 244 243 242 242 240 241 241 241 240 240 240
235 235 234 235 237 237 236 236 237 236 236 234 236 232 232 236 239 242 242 237 240 239 237 237 238 236 237 237 238 239 241 239 239 246 249 249 249 249 248 247 244 246 246 244 244 243 241 241 241 241 241 241 241 241

GFSWCAN_sfc_thetae_048.txt.gz
Theta_e
295 295 295 296 296 296 296 297 297 297 297 297 296 296 297 297 298 297 290 293 288 285 288 290 290 285 286 284 281 279 286 285 285 284 284 283 283 283 283 283 282 284 285 285 286 283 281 285 283 287 286 281 283 283
295 295 295 295 295 295 296 296 296 297 297 296 296 296 296 296 297 297 287 293 294 286 286 289 291 290 292 291 288 285 284 281 287 286 285 284 284 283 284 281 284 282 287 284 285 285 286 285 286 285 284 285 286 286
294 294 294 294 294 294 295 295 296 296 296 296 296 296 296 296 296 296 291 291 290 284 285 285 286 289 290 291 293 286 286 289 287 289 287 286 283 282 281 282 279 283 284 285 285 285 283 282 283 283 282 283 283 285
293 293 293 293 293 294 294 294 295 296 296 295 295 295 295 295 295 295 290 292 289 285 281 282 286 286 288 290 290 292 290 288 288 287 285 284 283 285 280 281 283 283 285 283 282 283 282 285 283 284 283 281 281 282
292 292 292 292 293 293 293 294 294 294 295 295 294 294 294 294 295 292 290 293 293 285 280 280 282 284 285 287 287 289 290 286 285 283 283 282 281 280 276 281 280 281 282 283 282 285 287 286 286 285 285 283 282 282
291 291 291 291 292 292 293 293 293 293 293 294 294 294 294 294 294 288 280 289 293 292 282 275 280 279 283 286 288 288 288 286 285 284 283 283 282 282 279 279 284 283 283 286 285 285 285 283 285 285 286 283 282 281
290 290 290 291 291 292 292 292 292 292 293 293 293 293 293 293 288 284 278 285 294 293 283 277 270 281 282 284 283 283 285 284 284 283 281 280 280 282 280 276 279 280 281 279 281 283 283 281 281 284 283 282 280 278
290 290 290 290 290 291 291 291 292 292 292 292 293 293 293 293 292 286 289 293 295 287 284 277 273 277 282 279 279 282 281 282 281 281 277 278 279 280 276 279 275 274 278 278 277 278 279 279 279 278 278 277 278 277
290 289 289 289 290 290 291 291 291 292 292 292 292 292 290 287 282 281 293 293 292 285 279 274 272 271 281 280 279 279 280 276 277 271 276 276 274 275 273 273 270 267 268 269 271 275 276 275 275 275 274 273 274 274
289 288 289 289 289 290 290 291 291 291 291 292 288 283 279 281 290 291 283 279 282 283 281 276 270 267 279 277 275 273 273 272 268 270 275 270 264 268 265 264 264 264 264 265 269 271 270 270 272 272 271 271 272 272
288 288 289 289 289 289 290 290 291 291 290 285 278 278 281 289 282 278 274 273 270 275 280 274 274 275 280 271 270 276 269 265 266 267 268 261 262 266 263 261 261 261 262 262 263 266 267 266 268 269 267 266 266 266
287 288 288 288 288 289 290 290 291 285 280 283 281 284 283 273 270 275 269 267 270 269 276 271 273 279 279 278 275 272 269 266 265 261 263 262 264 258 257 257 258 257 256 257 259 260 261 261 261 261 260 260 259 260
287 287 287 288 289 289 290 290 290 290 289 285 282 277 275 268 268 269 265 266 267 271 271 271 274 276 279 279 276 274 271 268 269 265 263 259 258 256 254 254 254 254 255 255 256 257 257 256 256 255 256 256 256 256
287 288 288 288 288 287 288 288 289 289 285 277 272 266 269 264 265 264 266 263 268 269 268 279 274 276 278 276 276 270 272 272 264 264 262 253 253 252 252 251 249 251 252 254 253 254 254 254 253 253 252 252 253 253
288 288 287 286 285 285 285 286 287 285 279 274 274 264 262 261 265 258 262 268 269 274 279 276 277 278 275 274 274 271 267 266 263 261 251 253 252 252 251 250 249 250 251 251 250 251 252 252 252 252 251 251 252 252
288 284 281 283 283 284 285 282 281 275 268 267 261 262 254 258 259 262 260 264 264 263 280 279 275 273 271 272 269 263 266 261 254 247 251 252 251 251 250 250 250 251 250 250 249 249 251 251 250 248 250 251 251 251
281 271 281 283 285 283 282 274 272 267 265 262 257 250 249 254 255 256 256 257 260 259 274 276 271 269 269 259 253 252 248 249 249 250 252 252 251 250 250 251 251 251 251 250 249 250 248 247 249 252 251 248 249 249
270 275 282 284 279 276 270 270 266 262 258 258 253 251 251 253 252 253 254 256 256 258 262 258 259 253 253 253 248 249 251 252 253 252 252 252 251 252 252 252 252 251 250 251 249 248 249 251 253 251 248 247 250 250
274 277 281 281 276 269 266 265 266 259 257 256 258 258 255 255 255 254 253 255 256 254 254 251 247 246 246 248 250 250 251 253 252 252 253 253 254 254 254 254 254 253 252 250 250 250 251 251 251 251 251 252 251 251
280 278 277 277 275 267 262 261 266 261 257 258 256 256 256 254 254 254 252 252 252 249 245 244 244 246 248 249 250 251 252 254 254 252 252 253 254 254 253 253 253 253 252 251 251 251 250 251 251 250 249 249 248 247
270 270 271 268 264 263 260 259 260 261 260 257 259 257 254 254 251 250 249 251 248 246 245 247 247 248 250 250 251 251 251 254 252 253 252 251 252 252 252 252 252 251 250 249 249 249 249 248 247 246 246 245 245 246
264 269 260 263 262 258 259 260 259 261 257 256 256 254 251 250 249 249 251 247 246 247 248 248 249 249 249 249 250 251 252 253 253 253 253 253 250 250 249 249 250 248 247 246 244 243 243 245 245 244 245 244 246 246
262 262 256 254 256 253 253 259 256 257 256 254 254 251 250 249 250 253 246 247 247 250 250 250 250 251 250 251 251 251 252 252 251 251 250 250 250 250 249 248 247 245 245 245 242 242 243 247 246 246 245 245 244 245
258 250 247 246 247 246 251 251 255 254 255 253 251 248 248 249 252 247 243 245 247 249 249 250 251 250 250 250 248 249 250 251 250 250 250 250 248 248 248 248 247 245 244 245 245 245 245 244 246 245 244 241 241 241
246 241 243 239 244 244 244 246 247 250 248 250 249 248 248 251 246 244 244 245 247 247 248 249 249 249 248 248 248 248 249 249 248 247 247 248 247 246 245 246 246 247 247 246 246 245 244 243 243 243 244 241 242 241
238 240 239 238 240 241 243 242 243 243 246 246 247 249 249 247 244 242 244 246 246 247 247 247 247 247 247 246 246 246 245 245 244 244 242 240 241 241 240 241 240 242 242 239 239 239 239 241 239 241 242 242 243 240
238 239 244 245 242 243 242 244 244 243 241 241 242 246 246 242 241 244 248 249 248 247 248 247 247 247 246 245 245 240 239 238 240 242 240 240 241 239 241 240 240 241 240 238 237 237 238 237 239 240 241 240 238 240
244 244 241 242 239 237 239 241 241 240 241 243 244 241 241 242 242 247 248 249 248 247 246 245 244 244 241 239 237 237 238 240 244 244 242 240 239 240 238 238 238 249 241 240 241 243 239 239 241 243 242 242 244 243
245 246 245 241 239 241 241 240 241 243 245 243 243 241 242 244 245 247 247 247 247 246 245 244 244 241 238 236 236 235 235 239 242 241 240 241 239 241 237 238 238 239 238 236 245 250 249 249 248 247 243 243 244 243
245 246 243 241 239 240 242 242 241 244 245 244 246 246 244 244 245 247 245 244 243 241 239 238 236 238 237 237 237 239 238 237 239 240 237 237 239 238 236 238 239 239 238 235 241 242 246 243 243 239 241 241 241 242
246 245 243 242 241 241 242 243 240 239 241 241 241 241 240 239 243 243 243 239 239 237 239 239 237 233 235 238 236 236 238 235 233 235 235 235 236 237 237 239 240 238 236 237 239 240 242 242 241 241 241 241 241 241
242 238 240 240 241 241 240 238 234 235 236 238 237 236 239 240 240 242 242 239 237 239 240 239 237 239 238 236 234 235 241 238 238 240 239 240 239 239 241 242 241 239 239 242 242 243 242 241 242 242 242 242 241 241
233 234 232 234 237 237 235 235 236 235 235 234 235 231 231 236 240 242 241 237 240 240 238 238 239 237 237 238 238 238 240 238 238 246 249 249 249 249 248 247 244 243 244 245 244 244 242 242 242 242 242 242 242 242